Time,TemperatureF,DewpointF,PressureIn,WindDirection,WindDirectionDegrees,WindSpeedMPH,WindSpeedGustMPH,Humidity,HourlyPrecipIn,Conditions,Clouds,dailyrainin,SoftwareType,DateUTC
2013-05-19 00:01:00,64.1,62.9,30.08,West,260,0.0,0.0,96,0.00,,,0.02,Wunderground v.1.15,2013-05-19 04:01:00,
2013-05-19 00:02:00,64.1,62.9,30.08,West,260,0.0,0.0,96,0.00,,,0.00,Wunderground v.1.15,2013-05-19 04:02:00,
2013-05-19 00:03:00,64.1,62.9,30.08,West,260,0.0,0.0,96,0.00,,,0.00,Wunderground v.1.15,2013-05-19 04:03:00,
2013-05-19 00:06:00,64.0,62.8,30.08,West,260,0.0,0.0,96,0.00,,,0.00,Wunderground v.1.15,2013-05-19 04:06:00,
2013-05-19 00:07:00,64.0,62.8,30.08,West,260,0.0,0.0,96,0.00,,,0.00,Wunderground v.1.15,2013-05-19 04:07:00,
2013-05-19 00:11:00,63.9,62.7,30.08,West,259,0.0,0.0,96,0.00,,,0.00,Wunderground v.1.15,2013-05-19 04:11:00,
2013-05-19 00:12:00,63.9,62.7,30.08,West,259,0.0,0.0,96,0.00,,,0.00,Wunderground v.1.15,2013-05-19 04:12:00,
2013-05-19 00:13:00,63.8,62.6,30.08,West,260,0.0,0.0,96,0.00,,,0.00,Wunderground v.1.15,2013-05-19 04:13:00,
2013-05-19 00:14:00,63.8,62.6,30.08,West,260,0.0,0.0,96,0.00,,,0.00,Wunderground v.1.15,2013-05-19 04:14:00,
2013-05-19 00:17:00,63.8,62.6,30.08,West,259,0.0,0.0,96,0.00,,,0.00,Wunderground v.1.15,2013-05-19 04:17:00,
2013-05-19 00:18:00,63.7,62.5,30.08,West,260,0.0,0.0,96,0.00,,,0.00,Wunderground v.1.15,2013-05-19 04:18:00,
2013-05-19 00:19:00,63.7,62.5,30.08,West,260,0.0,0.0,96,0.00,,,0.00,Wunderground v.1.15,2013-05-19 04:19:00,
2013-05-19 00:20:00,63.7,62.5,30.08,West,260,0.0,0.0,96,0.00,,,0.00,Wunderground v.1.15,2013-05-19 04:20:00,
2013-05-19 00:25:00,63.6,62.4,30.08,West,260,0.0,0.0,96,0.00,,,0.00,Wunderground v.1.15,2013-05-19 04:25:00,
2013-05-19 00:26:00,63.6,62.4,30.08,West,260,0.0,0.0,96,0.00,,,0.00,Wunderground v.1.15,2013-05-19 04:26:00,
2013-05-19 00:27:00,63.6,62.4,30.08,West,260,0.0,0.0,96,0.00,,,0.00,Wunderground v.1.15,2013-05-19 04:27:00,
2013-05-19 00:28:00,63.6,62.4,30.08,West,260,0.0,0.0,96,0.00,,,0.00,Wunderground v.1.15,2013-05-19 04:28:00,
2013-05-19 00:31:00,63.6,62.4,30.08,West,260,0.0,0.0,96,0.00,,,0.00,Wunderground v.1.15,2013-05-19 04:31:00,
2013-05-19 00:32:00,63.6,62.4,30.08,West,260,0.0,0.0,96,0.00,,,0.00,Wunderground v.1.15,2013-05-19 04:32:00,
2013-05-19 00:33:00,63.6,62.4,30.08,West,259,0.0,0.0,96,0.00,,,0.00,Wunderground v.1.15,2013-05-19 04:33:00,
2013-05-19 00:36:00,63.6,62.4,30.08,West,260,0.0,0.0,96,0.00,,,0.00,Wunderground v.1.15,2013-05-19 04:36:00,
2013-05-19 00:37:00,63.6,62.4,30.08,West,259,0.0,0.0,96,0.00,,,0.00,Wunderground v.1.15,2013-05-19 04:37:00,
2013-05-19 00:38:00,63.6,62.4,30.08,West,259,0.0,0.0,96,0.00,,,0.00,Wunderground v.1.15,2013-05-19 04:38:00,
2013-05-19 00:43:00,63.6,62.4,30.08,West,259,0.0,0.0,96,0.00,,,0.00,Wunderground v.1.15,2013-05-19 04:43:00,
2013-05-19 00:44:00,63.5,62.3,30.08,West,259,0.0,0.0,96,0.00,,,0.00,Wunderground v.1.15,2013-05-19 04:44:00,
2013-05-19 00:46:00,63.6,62.4,30.08,West,259,0.0,0.0,96,0.00,,,0.00,Wunderground v.1.15,2013-05-19 04:46:00,
2013-05-19 00:49:00,63.6,62.4,30.08,West,260,0.0,0.0,96,0.00,,,0.00,Wunderground v.1.15,2013-05-19 04:49:00,
2013-05-19 00:50:00,63.6,62.4,30.08,West,260,0.0,0.0,96,0.00,,,0.00,Wunderground v.1.15,2013-05-19 04:50:00,
2013-05-19 00:52:00,63.6,62.4,30.08,NW,305,0.0,0.0,96,0.00,,,0.00,Wunderground v.1.15,2013-05-19 04:52:00,
2013-05-19 00:53:00,63.6,62.4,30.08,NW,305,0.0,0.0,96,0.00,,,0.00,Wunderground v.1.15,2013-05-19 04:53:00,
2013-05-19 00:55:00,63.6,62.4,30.08,NW,304,0.0,0.0,96,0.00,,,0.00,Wunderground v.1.15,2013-05-19 04:55:00,
2013-05-19 00:57:00,63.7,62.5,30.08,NW,304,0.0,0.0,96,0.00,,,0.00,Wunderground v.1.15,2013-05-19 04:57:00,
2013-05-19 00:58:00,63.6,62.1,30.08,NW,305,0.0,0.0,95,0.00,,,0.00,Wunderground v.1.15,2013-05-19 04:58:00,
2013-05-19 00:59:00,63.7,62.2,30.08,NW,305,0.0,0.0,95,0.00,,,0.00,Wunderground v.1.15,2013-05-19 04:59:00,
2013-05-19 01:02:00,63.7,62.5,30.08,NW,305,0.0,0.0,96,0.00,,,0.00,Wunderground v.1.15,2013-05-19 05:02:00,
2013-05-19 01:03:00,63.7,62.5,30.08,NW,304,0.0,0.0,96,0.00,,,0.00,Wunderground v.1.15,2013-05-19 05:03:00,
2013-05-19 01:04:00,63.7,62.5,30.08,NW,304,0.0,0.0,96,0.00,,,0.00,Wunderground v.1.15,2013-05-19 05:04:00,
2013-05-19 01:06:00,63.7,62.5,30.08,NE,56,0.0,0.0,96,0.00,,,0.00,Wunderground v.1.15,2013-05-19 05:06:00,
2013-05-19 01:07:00,63.7,62.5,30.08,ESE,110,0.0,0.0,96,0.00,,,0.00,Wunderground v.1.15,2013-05-19 05:07:00,
2013-05-19 01:09:00,63.7,62.5,30.08,ESE,110,0.0,0.0,96,0.00,,,0.00,Wunderground v.1.15,2013-05-19 05:09:00,
2013-05-19 01:11:00,63.7,62.5,30.08,ESE,110,0.0,0.0,96,0.00,,,0.00,Wunderground v.1.15,2013-05-19 05:11:00,
2013-05-19 01:13:00,63.8,62.6,30.08,ESE,110,0.0,0.0,96,0.00,,,0.00,Wunderground v.1.15,2013-05-19 05:13:00,
2013-05-19 01:17:00,63.8,62.6,30.08,ESE,110,0.0,0.0,96,0.00,,,0.00,Wunderground v.1.15,2013-05-19 05:17:00,
2013-05-19 01:18:00,63.8,62.6,30.08,ESE,110,0.0,0.0,96,0.00,,,0.00,Wunderground v.1.15,2013-05-19 05:18:00,
2013-05-19 01:19:00,63.8,62.6,30.08,ESE,110,0.0,0.0,96,0.00,,,0.00,Wunderground v.1.15,2013-05-19 05:19:00,
2013-05-19 01:22:00,63.9,62.7,30.08,ESE,110,0.0,0.0,96,0.00,,,0.00,Wunderground v.1.15,2013-05-19 05:22:00,
2013-05-19 01:26:00,63.9,62.7,30.08,ESE,110,0.0,0.0,96,0.00,,,0.00,Wunderground v.1.15,2013-05-19 05:26:00,
2013-05-19 01:27:00,63.9,62.7,30.08,ESE,110,0.0,0.0,96,0.00,,,0.00,Wunderground v.1.15,2013-05-19 05:27:00,
2013-05-19 01:28:00,63.9,62.7,30.08,ESE,110,0.0,0.0,96,0.00,,,0.00,Wunderground v.1.15,2013-05-19 05:28:00,
2013-05-19 01:31:00,63.9,62.7,30.08,ESE,110,0.0,0.0,96,0.00,,,0.00,Wunderground v.1.15,2013-05-19 05:31:00,
2013-05-19 01:32:00,63.9,62.7,30.08,ESE,110,0.0,0.0,96,0.00,,,0.00,Wunderground v.1.15,2013-05-19 05:32:00,
2013-05-19 01:33:00,63.9,62.7,30.08,ESE,110,0.0,0.0,96,0.00,,,0.00,Wunderground v.1.15,2013-05-19 05:33:00,
2013-05-19 01:35:00,63.9,62.7,30.08,ESE,110,0.0,0.0,96,0.00,,,0.00,Wunderground v.1.15,2013-05-19 05:35:00,
2013-05-19 01:37:00,63.9,62.7,30.08,ESE,110,0.0,0.0,96,0.00,,,0.00,Wunderground v.1.15,2013-05-19 05:37:00,
2013-05-19 01:38:00,63.9,62.7,30.08,ESE,110,0.0,0.0,96,0.00,,,0.00,Wunderground v.1.15,2013-05-19 05:38:00,
2013-05-19 01:40:00,63.9,62.7,30.08,ESE,110,0.0,0.0,96,0.00,,,0.00,Wunderground v.1.15,2013-05-19 05:40:00,
2013-05-19 01:43:00,63.9,62.7,30.08,ESE,110,0.0,0.0,96,0.00,,,0.00,Wunderground v.1.15,2013-05-19 05:43:00,
2013-05-19 01:44:00,63.9,62.7,30.08,ESE,110,0.0,0.0,96,0.00,,,0.00,Wunderground v.1.15,2013-05-19 05:44:00,
2013-05-19 01:45:00,63.9,62.7,30.08,ESE,110,0.0,0.0,96,0.00,,,0.00,Wunderground v.1.15,2013-05-19 05:45:00,
2013-05-19 01:48:00,63.9,62.7,30.08,ESE,110,0.0,0.0,96,0.00,,,0.00,Wunderground v.1.15,2013-05-19 05:48:00,
2013-05-19 01:49:00,63.9,62.7,30.08,ESE,110,0.0,0.0,96,0.00,,,0.00,Wunderground v.1.15,2013-05-19 05:49:00,
2013-05-19 01:50:00,63.9,62.7,30.08,ESE,110,0.0,0.0,96,0.00,,,0.00,Wunderground v.1.15,2013-05-19 05:50:00,
2013-05-19 01:52:00,63.9,62.7,30.08,ESE,110,0.0,0.0,96,0.00,,,0.00,Wunderground v.1.15,2013-05-19 05:52:00,
2013-05-19 01:54:00,63.8,62.6,30.08,ESE,110,0.0,0.0,96,0.00,,,0.00,Wunderground v.1.15,2013-05-19 05:54:00,
2013-05-19 01:56:00,63.8,62.6,30.08,ESE,110,0.0,0.0,96,0.00,,,0.00,Wunderground v.1.15,2013-05-19 05:56:00,
2013-05-19 01:57:00,63.8,62.6,30.08,ESE,110,0.0,0.0,96,0.00,,,0.00,Wunderground v.1.15,2013-05-19 05:57:00,
2013-05-19 01:59:00,63.7,62.5,30.08,ESE,110,0.0,0.0,96,0.00,,,0.00,Wunderground v.1.15,2013-05-19 05:59:00,
2013-05-19 02:00:00,63.7,62.5,30.08,ESE,110,0.0,0.0,96,0.00,,,0.00,Wunderground v.1.15,2013-05-19 06:00:00,
2013-05-19 02:01:00,63.7,62.5,30.08,ESE,110,0.0,0.0,96,0.00,,,0.00,Wunderground v.1.15,2013-05-19 06:01:00,
2013-05-19 02:02:00,63.7,62.5,30.08,ESE,110,0.0,0.0,96,0.00,,,0.00,Wunderground v.1.15,2013-05-19 06:02:00,
2013-05-19 02:04:00,63.7,62.5,30.08,ESE,110,0.0,0.0,96,0.00,,,0.00,Wunderground v.1.15,2013-05-19 06:04:00,
2013-05-19 02:05:00,63.7,62.5,30.08,ESE,110,0.0,0.0,96,0.00,,,0.00,Wunderground v.1.15,2013-05-19 06:05:00,
2013-05-19 02:06:00,63.7,62.5,30.08,ESE,110,0.0,0.0,96,0.00,,,0.00,Wunderground v.1.15,2013-05-19 06:06:00,
2013-05-19 02:07:00,63.7,62.5,30.08,ESE,110,0.0,0.0,96,0.00,,,0.00,Wunderground v.1.15,2013-05-19 06:07:00,
2013-05-19 02:09:00,63.7,62.5,30.08,ESE,110,0.0,0.0,96,0.00,,,0.00,Wunderground v.1.15,2013-05-19 06:09:00,
2013-05-19 02:11:00,63.6,62.4,30.08,ESE,110,0.0,0.0,96,0.00,,,0.00,Wunderground v.1.15,2013-05-19 06:11:00,
2013-05-19 02:12:00,63.6,62.4,30.08,ESE,110,0.0,0.0,96,0.00,,,0.00,Wunderground v.1.15,2013-05-19 06:12:00,
2013-05-19 02:14:00,63.6,62.4,30.08,ESE,110,0.0,0.0,96,0.00,,,0.00,Wunderground v.1.15,2013-05-19 06:14:00,
2013-05-19 02:16:00,63.6,62.4,30.08,ESE,110,0.0,0.0,96,0.00,,,0.00,Wunderground v.1.15,2013-05-19 06:16:00,
2013-05-19 02:17:00,63.6,62.4,30.08,ESE,110,0.0,0.0,96,0.00,,,0.00,Wunderground v.1.15,2013-05-19 06:17:00,
2013-05-19 02:19:00,63.6,62.4,30.08,ESE,110,0.0,0.0,96,0.00,,,0.00,Wunderground v.1.15,2013-05-19 06:19:00,
2013-05-19 02:21:00,63.6,62.4,30.08,ESE,110,0.0,0.0,96,0.00,,,0.00,Wunderground v.1.15,2013-05-19 06:21:00,
2013-05-19 02:22:00,63.6,62.4,30.07,ESE,110,0.0,0.0,96,0.00,,,0.00,Wunderground v.1.15,2013-05-19 06:22:00,
2013-05-19 02:25:00,63.6,62.4,30.07,ESE,110,0.0,0.0,96,0.00,,,0.00,Wunderground v.1.15,2013-05-19 06:25:00,
2013-05-19 02:26:00,63.6,62.4,30.08,ESE,110,0.0,0.0,96,0.00,,,0.00,Wunderground v.1.15,2013-05-19 06:26:00,
2013-05-19 02:27:00,63.7,62.5,30.07,ESE,110,0.0,0.0,96,0.00,,,0.00,Wunderground v.1.15,2013-05-19 06:27:00,
2013-05-19 02:30:00,63.7,62.5,30.07,ESE,110,0.0,0.0,96,0.00,,,0.00,Wunderground v.1.15,2013-05-19 06:30:00,
2013-05-19 02:31:00,63.7,62.5,30.07,ESE,110,0.0,0.0,96,0.00,,,0.00,Wunderground v.1.15,2013-05-19 06:31:00,
2013-05-19 02:32:00,63.6,62.4,30.07,ESE,110,0.0,0.0,96,0.00,,,0.00,Wunderground v.1.15,2013-05-19 06:32:00,
2013-05-19 02:33:00,63.7,62.5,30.07,ESE,110,0.0,0.0,96,0.00,,,0.00,Wunderground v.1.15,2013-05-19 06:33:00,
2013-05-19 02:35:00,63.7,62.8,30.08,ESE,110,0.0,0.0,97,0.00,,,0.00,Wunderground v.1.15,2013-05-19 06:35:00,
2013-05-19 02:36:00,63.7,62.5,30.07,ESE,110,0.0,0.0,96,0.00,,,0.00,Wunderground v.1.15,2013-05-19 06:36:00,
2013-05-19 02:37:00,63.7,62.5,30.07,ESE,110,0.0,0.0,96,0.00,,,0.00,Wunderground v.1.15,2013-05-19 06:37:00,
2013-05-19 02:38:00,63.7,62.5,30.07,ESE,110,0.0,0.0,96,0.00,,,0.00,Wunderground v.1.15,2013-05-19 06:38:00,
2013-05-19 02:40:00,63.7,62.5,30.07,ESE,110,0.0,0.0,96,0.00,,,0.00,Wunderground v.1.15,2013-05-19 06:40:00,
2013-05-19 02:42:00,63.7,62.8,30.07,ESE,110,0.0,0.0,97,0.00,,,0.00,Wunderground v.1.15,2013-05-19 06:42:00,
2013-05-19 02:43:00,63.7,62.8,30.07,ESE,110,0.0,0.0,97,0.00,,,0.00,Wunderground v.1.15,2013-05-19 06:43:00,
2013-05-19 02:45:00,63.8,62.9,30.07,NNE,19,0.0,0.0,97,0.00,,,0.00,Wunderground v.1.15,2013-05-19 06:45:00,
2013-05-19 02:47:00,63.7,62.8,30.07,NNE,19,0.0,0.0,97,0.00,,,0.00,Wunderground v.1.15,2013-05-19 06:47:00,
2013-05-19 02:49:00,63.8,62.9,30.07,NNE,19,0.0,0.0,97,0.00,,,0.00,Wunderground v.1.15,2013-05-19 06:49:00,
2013-05-19 02:50:00,63.8,62.9,30.07,NNE,19,0.0,0.0,97,0.00,,,0.00,Wunderground v.1.15,2013-05-19 06:50:00,
2013-05-19 02:52:00,63.8,62.9,30.07,NNE,18,0.0,0.0,97,0.00,,,0.00,Wunderground v.1.15,2013-05-19 06:52:00,
2013-05-19 02:54:00,63.8,62.9,30.07,NNE,17,0.0,0.0,97,0.00,,,0.00,Wunderground v.1.15,2013-05-19 06:54:00,
2013-05-19 02:55:00,63.8,62.9,30.07,NNE,18,0.0,0.0,97,0.00,,,0.00,Wunderground v.1.15,2013-05-19 06:55:00,
2013-05-19 02:57:00,63.8,62.9,30.07,NNE,18,0.0,0.0,97,0.00,,,0.00,Wunderground v.1.15,2013-05-19 06:57:00,
2013-05-19 02:58:00,63.9,63.0,30.07,NNE,17,0.0,0.0,97,0.00,,,0.00,Wunderground v.1.15,2013-05-19 06:58:00,
2013-05-19 02:59:00,63.8,62.9,30.07,NNE,17,0.0,0.0,97,0.00,,,0.00,Wunderground v.1.15,2013-05-19 06:59:00,
2013-05-19 03:01:00,63.8,62.9,30.07,NNE,18,0.0,0.0,97,0.00,,,0.00,Wunderground v.1.15,2013-05-19 07:01:00,
2013-05-19 03:02:00,63.8,62.9,30.07,NNE,18,0.0,0.0,97,0.00,,,0.00,Wunderground v.1.15,2013-05-19 07:02:00,
2013-05-19 03:03:00,63.9,63.0,30.07,NNE,18,0.0,0.0,97,0.00,,,0.00,Wunderground v.1.15,2013-05-19 07:03:00,
2013-05-19 03:04:00,63.9,63.0,30.07,NNE,17,0.0,0.0,97,0.00,,,0.00,Wunderground v.1.15,2013-05-19 07:04:00,
2013-05-19 03:05:00,63.9,63.0,30.07,NNE,18,0.0,0.0,97,0.00,,,0.00,Wunderground v.1.15,2013-05-19 07:05:00,
2013-05-19 03:06:00,63.9,63.0,30.07,NNE,17,0.0,0.0,97,0.00,,,0.00,Wunderground v.1.15,2013-05-19 07:06:00,
2013-05-19 03:07:00,63.8,62.9,30.07,NNE,18,0.0,0.0,97,0.00,,,0.00,Wunderground v.1.15,2013-05-19 07:07:00,
2013-05-19 03:08:00,63.8,62.9,30.07,NNE,18,0.0,0.0,97,0.00,,,0.00,Wunderground v.1.15,2013-05-19 07:08:00,
2013-05-19 03:10:00,63.8,62.9,30.07,NNE,18,0.0,0.0,97,0.00,,,0.00,Wunderground v.1.15,2013-05-19 07:10:00,
2013-05-19 03:11:00,63.8,62.9,30.07,NNE,18,0.0,0.0,97,0.00,,,0.00,Wunderground v.1.15,2013-05-19 07:11:00,
2013-05-19 03:12:00,63.8,62.9,30.07,NW,309,0.0,0.0,97,0.00,,,0.00,Wunderground v.1.15,2013-05-19 07:12:00,
2013-05-19 03:13:00,63.8,62.9,30.07,NW,309,0.0,0.0,97,0.00,,,0.00,Wunderground v.1.15,2013-05-19 07:13:00,
2013-05-19 03:15:00,63.8,62.9,30.07,NW,309,0.0,0.0,97,0.00,,,0.00,Wunderground v.1.15,2013-05-19 07:15:00,
2013-05-19 03:16:00,63.8,62.9,30.07,NW,309,0.0,0.0,97,0.00,,,0.00,Wunderground v.1.15,2013-05-19 07:16:00,
2013-05-19 03:17:00,63.8,62.9,30.07,NW,309,0.0,0.0,97,0.00,,,0.00,Wunderground v.1.15,2013-05-19 07:17:00,
2013-05-19 03:18:00,63.8,62.9,30.06,NW,309,0.0,0.0,97,0.00,,,0.00,Wunderground v.1.15,2013-05-19 07:18:00,
2013-05-19 03:20:00,63.8,62.9,30.07,NW,309,0.0,0.0,97,0.00,,,0.00,Wunderground v.1.15,2013-05-19 07:20:00,
2013-05-19 03:21:00,63.8,62.9,30.07,NW,309,0.0,0.0,97,0.00,,,0.00,Wunderground v.1.15,2013-05-19 07:21:00,
2013-05-19 03:22:00,63.8,62.9,30.07,NW,309,0.0,0.0,97,0.00,,,0.00,Wunderground v.1.15,2013-05-19 07:22:00,
2013-05-19 03:24:00,63.8,62.9,30.07,NW,309,0.0,0.0,97,0.00,,,0.00,Wunderground v.1.15,2013-05-19 07:24:00,
2013-05-19 03:25:00,63.8,62.9,30.07,NW,309,0.0,0.0,97,0.00,,,0.00,Wunderground v.1.15,2013-05-19 07:25:00,
2013-05-19 03:26:00,63.8,62.9,30.07,NW,309,0.0,0.0,97,0.00,,,0.00,Wunderground v.1.15,2013-05-19 07:26:00,
2013-05-19 03:27:00,63.9,63.0,30.07,NW,309,0.0,0.0,97,0.00,,,0.00,Wunderground v.1.15,2013-05-19 07:27:00,
2013-05-19 03:29:00,63.8,62.9,30.06,NW,309,0.0,0.0,97,0.00,,,0.00,Wunderground v.1.15,2013-05-19 07:29:00,
2013-05-19 03:30:00,63.9,63.0,30.06,NW,309,0.0,0.0,97,0.00,,,0.00,Wunderground v.1.15,2013-05-19 07:30:00,
2013-05-19 03:31:00,63.8,62.9,30.07,NW,309,0.0,0.0,97,0.00,,,0.00,Wunderground v.1.15,2013-05-19 07:31:00,
2013-05-19 03:32:00,63.8,62.9,30.07,NW,309,0.0,0.0,97,0.00,,,0.00,Wunderground v.1.15,2013-05-19 07:32:00,
2013-05-19 03:34:00,63.8,62.9,30.06,NW,309,0.0,0.0,97,0.00,,,0.00,Wunderground v.1.15,2013-05-19 07:34:00,
2013-05-19 03:35:00,63.8,62.9,30.06,NW,309,0.0,0.0,97,0.00,,,0.00,Wunderground v.1.15,2013-05-19 07:35:00,
2013-05-19 03:36:00,63.8,62.9,30.06,NW,309,0.0,0.0,97,0.00,,,0.00,Wunderground v.1.15,2013-05-19 07:36:00,
2013-05-19 03:37:00,63.8,62.9,30.06,NW,309,0.0,0.0,97,0.00,,,0.00,Wunderground v.1.15,2013-05-19 07:37:00,
2013-05-19 03:39:00,63.8,62.9,30.06,NW,309,0.0,0.0,97,0.00,,,0.00,Wunderground v.1.15,2013-05-19 07:39:00,
2013-05-19 03:40:00,63.8,62.9,30.06,NW,309,0.0,0.0,97,0.00,,,0.00,Wunderground v.1.15,2013-05-19 07:40:00,
2013-05-19 03:41:00,63.9,63.0,30.06,NW,309,0.0,0.0,97,0.00,,,0.00,Wunderground v.1.15,2013-05-19 07:41:00,
2013-05-19 03:42:00,63.9,63.0,30.06,NW,309,0.0,0.0,97,0.00,,,0.00,Wunderground v.1.15,2013-05-19 07:42:00,
2013-05-19 03:43:00,63.9,63.0,30.06,NW,309,0.0,0.0,97,0.00,,,0.00,Wunderground v.1.15,2013-05-19 07:43:00,
2013-05-19 03:44:00,63.9,63.0,30.07,NW,309,0.0,0.0,97,0.00,,,0.00,Wunderground v.1.15,2013-05-19 07:44:00,
2013-05-19 03:45:00,63.9,63.0,30.06,NW,309,0.0,0.0,97,0.00,,,0.00,Wunderground v.1.15,2013-05-19 07:45:00,
2013-05-19 03:46:00,63.9,63.0,30.07,NW,309,0.0,0.0,97,0.00,,,0.00,Wunderground v.1.15,2013-05-19 07:46:00,
2013-05-19 03:48:00,63.9,63.0,30.06,NW,309,0.0,0.0,97,0.00,,,0.00,Wunderground v.1.15,2013-05-19 07:48:00,
2013-05-19 03:50:00,63.9,63.0,30.06,NW,309,0.0,0.0,97,0.00,,,0.00,Wunderground v.1.15,2013-05-19 07:50:00,
2013-05-19 03:51:00,63.9,63.0,30.06,NW,309,0.0,0.0,97,0.00,,,0.00,Wunderground v.1.15,2013-05-19 07:51:00,
2013-05-19 03:53:00,63.9,63.0,30.06,NW,309,0.0,0.0,97,0.00,,,0.00,Wunderground v.1.15,2013-05-19 07:53:00,
2013-05-19 03:54:00,64.0,63.1,30.06,NW,309,0.0,0.0,97,0.00,,,0.00,Wunderground v.1.15,2013-05-19 07:54:00,
2013-05-19 03:55:00,64.0,63.1,30.06,NW,309,0.0,0.0,97,0.00,,,0.00,Wunderground v.1.15,2013-05-19 07:55:00,
2013-05-19 03:56:00,64.0,63.1,30.06,NW,309,0.0,0.0,97,0.00,,,0.00,Wunderground v.1.15,2013-05-19 07:56:00,
2013-05-19 03:58:00,64.0,63.1,30.06,NW,309,0.0,0.0,97,0.00,,,0.00,Wunderground v.1.15,2013-05-19 07:58:00,
2013-05-19 03:59:00,64.0,63.1,30.06,NW,309,0.0,0.0,97,0.00,,,0.00,Wunderground v.1.15,2013-05-19 07:59:00,
2013-05-19 04:01:00,64.0,63.1,30.06,NW,309,0.0,0.0,97,0.00,,,0.00,Wunderground v.1.15,2013-05-19 08:01:00,
2013-05-19 04:02:00,64.1,63.2,30.06,NW,309,0.0,0.0,97,0.00,,,0.00,Wunderground v.1.15,2013-05-19 08:02:00,
2013-05-19 04:03:00,64.1,63.2,30.06,NW,309,0.0,0.0,97,0.00,,,0.00,Wunderground v.1.15,2013-05-19 08:03:00,
2013-05-19 04:04:00,64.1,63.2,30.06,NW,309,0.0,0.0,97,0.00,,,0.00,Wunderground v.1.15,2013-05-19 08:04:00,
2013-05-19 04:06:00,64.1,63.2,30.06,NW,309,0.0,0.0,97,0.00,,,0.00,Wunderground v.1.15,2013-05-19 08:06:00,
2013-05-19 04:07:00,64.1,63.2,30.06,NW,309,0.0,0.0,97,0.00,,,0.00,Wunderground v.1.15,2013-05-19 08:07:00,
2013-05-19 04:08:00,64.1,63.2,30.06,NW,309,0.0,0.0,97,0.00,,,0.00,Wunderground v.1.15,2013-05-19 08:08:00,
2013-05-19 04:10:00,64.1,63.2,30.06,NW,317,0.0,0.0,97,0.00,,,0.00,Wunderground v.1.15,2013-05-19 08:10:00,
2013-05-19 04:11:00,64.2,63.3,30.06,NW,317,0.0,0.0,97,0.00,,,0.00,Wunderground v.1.15,2013-05-19 08:11:00,
2013-05-19 04:12:00,64.2,63.3,30.06,NW,317,0.0,0.0,97,0.00,,,0.00,Wunderground v.1.15,2013-05-19 08:12:00,
2013-05-19 04:14:00,64.2,63.3,30.06,NW,317,0.0,0.0,97,0.00,,,0.00,Wunderground v.1.15,2013-05-19 08:14:00,
2013-05-19 04:15:00,64.2,63.3,30.06,NW,318,0.0,0.0,97,0.00,,,0.00,Wunderground v.1.15,2013-05-19 08:15:00,
2013-05-19 04:16:00,64.3,63.4,30.06,NW,318,0.0,0.0,97,0.00,,,0.00,Wunderground v.1.15,2013-05-19 08:16:00,
2013-05-19 04:17:00,64.2,63.3,30.06,NW,317,0.0,0.0,97,0.00,,,0.00,Wunderground v.1.15,2013-05-19 08:17:00,
2013-05-19 04:19:00,64.3,63.4,30.06,NW,317,0.0,0.0,97,0.00,,,0.00,Wunderground v.1.15,2013-05-19 08:19:00,
2013-05-19 04:20:00,64.3,63.4,30.06,NW,317,0.0,0.0,97,0.00,,,0.00,Wunderground v.1.15,2013-05-19 08:20:00,
2013-05-19 04:21:00,64.3,63.4,30.06,NW,318,0.0,0.0,97,0.00,,,0.00,Wunderground v.1.15,2013-05-19 08:21:00,
2013-05-19 04:23:00,64.3,63.4,30.06,NW,318,0.0,0.0,97,0.00,,,0.00,Wunderground v.1.15,2013-05-19 08:23:00,
2013-05-19 04:25:00,64.3,63.4,30.06,NW,318,0.0,0.0,97,0.00,,,0.00,Wunderground v.1.15,2013-05-19 08:25:00,
2013-05-19 04:26:00,64.3,63.4,30.06,NW,317,0.0,0.0,97,0.00,,,0.00,Wunderground v.1.15,2013-05-19 08:26:00,
2013-05-19 04:27:00,64.3,63.4,30.06,NW,318,0.0,0.0,97,0.00,,,0.00,Wunderground v.1.15,2013-05-19 08:27:00,
2013-05-19 04:28:00,64.3,63.4,30.06,NW,317,0.0,0.0,97,0.00,,,0.00,Wunderground v.1.15,2013-05-19 08:28:00,
2013-05-19 04:30:00,64.3,63.4,30.06,NW,318,0.0,0.0,97,0.00,,,0.00,Wunderground v.1.15,2013-05-19 08:30:00,
2013-05-19 04:31:00,64.3,63.4,30.06,NW,318,0.0,0.0,97,0.00,,,0.00,Wunderground v.1.15,2013-05-19 08:31:00,
2013-05-19 04:32:00,64.3,63.4,30.06,NW,318,0.0,0.0,97,0.00,,,0.00,Wunderground v.1.15,2013-05-19 08:32:00,
2013-05-19 04:33:00,64.3,63.4,30.06,NW,318,0.0,0.0,97,0.00,,,0.00,Wunderground v.1.15,2013-05-19 08:33:00,
2013-05-19 04:35:00,64.4,63.5,30.06,NW,318,0.0,0.0,97,0.00,,,0.00,Wunderground v.1.15,2013-05-19 08:35:00,
2013-05-19 04:36:00,64.4,63.5,30.06,NW,317,0.0,0.0,97,0.00,,,0.00,Wunderground v.1.15,2013-05-19 08:36:00,
2013-05-19 04:37:00,64.4,63.5,30.06,NW,317,0.0,0.0,97,0.00,,,0.00,Wunderground v.1.15,2013-05-19 08:37:00,
2013-05-19 04:38:00,64.4,63.5,30.06,NW,317,0.0,0.0,97,0.00,,,0.00,Wunderground v.1.15,2013-05-19 08:38:00,
2013-05-19 04:41:00,64.4,63.5,30.06,NW,317,0.0,0.0,97,0.00,,,0.00,Wunderground v.1.15,2013-05-19 08:41:00,
2013-05-19 04:42:00,64.4,63.5,30.06,NW,318,0.0,0.0,97,0.00,,,0.00,Wunderground v.1.15,2013-05-19 08:42:00,
2013-05-19 04:43:00,64.4,63.5,30.06,NW,317,0.0,0.0,97,0.00,,,0.00,Wunderground v.1.15,2013-05-19 08:43:00,
2013-05-19 04:46:00,64.4,63.5,30.06,NW,317,0.0,0.0,97,0.00,,,0.00,Wunderground v.1.15,2013-05-19 08:46:00,
2013-05-19 04:47:00,64.4,63.5,30.06,NW,317,0.0,0.0,97,0.00,,,0.00,Wunderground v.1.15,2013-05-19 08:47:00,
2013-05-19 04:48:00,64.5,63.6,30.06,NW,317,0.0,0.0,97,0.00,,,0.00,Wunderground v.1.15,2013-05-19 08:48:00,
2013-05-19 04:51:00,64.5,63.6,30.06,NW,318,0.0,0.0,97,0.00,,,0.00,Wunderground v.1.15,2013-05-19 08:51:00,
2013-05-19 04:52:00,64.5,63.6,30.06,NW,317,0.0,0.0,97,0.00,,,0.00,Wunderground v.1.15,2013-05-19 08:52:00,
2013-05-19 04:53:00,64.5,63.6,30.06,NW,318,0.0,0.0,97,0.00,,,0.00,Wunderground v.1.15,2013-05-19 08:53:00,
2013-05-19 04:56:00,64.5,63.6,30.06,NW,317,0.0,0.0,97,0.00,,,0.00,Wunderground v.1.15,2013-05-19 08:56:00,
2013-05-19 04:58:00,64.5,63.6,30.07,NW,317,0.0,0.0,97,0.00,,,0.00,Wunderground v.1.15,2013-05-19 08:58:00,
2013-05-19 04:59:00,64.5,63.6,30.07,NW,317,0.0,0.0,97,0.00,,,0.00,Wunderground v.1.15,2013-05-19 08:59:00,
2013-05-19 05:01:00,64.5,63.6,30.07,NW,317,0.0,0.0,97,0.00,,,0.00,Wunderground v.1.15,2013-05-19 09:01:00,
2013-05-19 05:02:00,64.5,63.6,30.07,NW,317,0.0,0.0,97,0.00,,,0.00,Wunderground v.1.15,2013-05-19 09:02:00,
2013-05-19 05:03:00,64.5,63.6,30.07,NW,318,0.0,0.0,97,0.00,,,0.00,Wunderground v.1.15,2013-05-19 09:03:00,
2013-05-19 05:04:00,64.5,63.6,30.07,NW,317,0.0,0.0,97,0.00,,,0.00,Wunderground v.1.15,2013-05-19 09:04:00,
2013-05-19 05:06:00,64.5,63.6,30.07,NW,318,0.0,0.0,97,0.00,,,0.00,Wunderground v.1.15,2013-05-19 09:06:00,
2013-05-19 05:07:00,64.5,63.6,30.07,NW,317,0.0,0.0,97,0.00,,,0.00,Wunderground v.1.15,2013-05-19 09:07:00,
2013-05-19 05:08:00,64.5,63.6,30.07,NW,318,0.0,0.0,97,0.00,,,0.00,Wunderground v.1.15,2013-05-19 09:08:00,
2013-05-19 05:09:00,64.6,63.7,30.07,NW,318,0.0,0.0,97,0.00,,,0.00,Wunderground v.1.15,2013-05-19 09:09:00,
2013-05-19 05:11:00,64.5,63.6,30.06,NW,318,0.0,0.0,97,0.00,,,0.00,Wunderground v.1.15,2013-05-19 09:11:00,
2013-05-19 05:12:00,64.5,63.6,30.07,NW,318,0.0,0.0,97,0.00,,,0.00,Wunderground v.1.15,2013-05-19 09:12:00,
2013-05-19 05:13:00,64.5,63.6,30.06,NW,317,0.0,0.0,97,0.00,,,0.00,Wunderground v.1.15,2013-05-19 09:13:00,
2013-05-19 05:14:00,64.5,63.6,30.06,NW,318,0.0,0.0,97,0.00,,,0.00,Wunderground v.1.15,2013-05-19 09:14:00,
2013-05-19 05:15:00,64.5,63.6,30.07,NW,318,0.0,0.0,97,0.00,,,0.00,Wunderground v.1.15,2013-05-19 09:15:00,
2013-05-19 05:17:00,64.5,63.6,30.06,West,278,0.0,0.0,97,0.00,,,0.00,Wunderground v.1.15,2013-05-19 09:17:00,
2013-05-19 05:18:00,64.6,63.7,30.06,West,278,0.0,0.0,97,0.00,,,0.00,Wunderground v.1.15,2013-05-19 09:18:00,
2013-05-19 05:19:00,64.5,63.6,30.06,West,278,0.0,0.0,97,0.00,,,0.00,Wunderground v.1.15,2013-05-19 09:19:00,
2013-05-19 05:20:00,64.6,63.7,30.07,West,278,0.0,0.0,97,0.00,,,0.00,Wunderground v.1.15,2013-05-19 09:20:00,
2013-05-19 05:22:00,64.6,63.7,30.07,West,278,0.0,0.0,97,0.00,,,0.00,Wunderground v.1.15,2013-05-19 09:22:00,
2013-05-19 05:24:00,64.6,63.7,30.07,West,278,0.0,0.0,97,0.00,,,0.00,Wunderground v.1.15,2013-05-19 09:24:00,
2013-05-19 05:25:00,64.6,63.7,30.07,West,278,0.0,0.0,97,0.00,,,0.00,Wunderground v.1.15,2013-05-19 09:25:00,
2013-05-19 05:27:00,64.6,63.7,30.07,West,278,0.0,0.0,97,0.00,,,0.00,Wunderground v.1.15,2013-05-19 09:27:00,
2013-05-19 05:29:00,64.6,63.7,30.07,West,278,0.0,0.0,97,0.00,,,0.00,Wunderground v.1.15,2013-05-19 09:29:00,
2013-05-19 05:30:00,64.6,63.7,30.07,West,278,0.0,0.0,97,0.00,,,0.00,Wunderground v.1.15,2013-05-19 09:30:00,
2013-05-19 05:32:00,64.6,63.7,30.07,West,278,0.0,0.0,97,0.00,,,0.00,Wunderground v.1.15,2013-05-19 09:32:00,
2013-05-19 05:34:00,64.6,63.7,30.07,West,278,0.0,0.0,97,0.00,,,0.00,Wunderground v.1.15,2013-05-19 09:34:00,
2013-05-19 05:35:00,64.6,63.7,30.07,West,278,0.0,0.0,97,0.00,,,0.00,Wunderground v.1.15,2013-05-19 09:35:00,
2013-05-19 05:37:00,64.6,63.7,30.07,West,278,0.0,0.0,97,0.00,,,0.00,Wunderground v.1.15,2013-05-19 09:37:00,
2013-05-19 05:39:00,64.7,64.1,30.07,West,278,0.0,0.0,98,0.00,,,0.00,Wunderground v.1.15,2013-05-19 09:39:00,
2013-05-19 05:40:00,64.7,63.8,30.07,West,278,0.0,0.0,97,0.00,,,0.00,Wunderground v.1.15,2013-05-19 09:40:00,
2013-05-19 05:42:00,64.7,64.1,30.07,West,278,0.0,0.0,98,0.00,,,0.00,Wunderground v.1.15,2013-05-19 09:42:00,
2013-05-19 05:45:00,64.7,63.8,30.07,West,278,0.0,0.0,97,0.00,,,0.00,Wunderground v.1.15,2013-05-19 09:45:00,
2013-05-19 05:47:00,64.7,64.1,30.07,West,278,0.0,0.0,98,0.00,,,0.00,Wunderground v.1.15,2013-05-19 09:47:00,
2013-05-19 05:50:00,64.7,63.8,30.07,West,278,0.0,0.0,97,0.00,,,0.00,Wunderground v.1.15,2013-05-19 09:50:00,
2013-05-19 05:52:00,64.7,64.1,30.07,West,278,0.0,0.0,98,0.00,,,0.00,Wunderground v.1.15,2013-05-19 09:52:00,
2013-05-19 05:55:00,64.7,64.1,30.07,West,278,0.0,0.0,98,0.00,,,0.00,Wunderground v.1.15,2013-05-19 09:55:00,
2013-05-19 05:56:00,64.7,64.1,30.07,West,278,0.0,0.0,98,0.00,,,0.00,Wunderground v.1.15,2013-05-19 09:56:00,
2013-05-19 05:58:00,64.7,63.8,30.07,West,278,0.0,0.0,97,0.00,,,0.00,Wunderground v.1.15,2013-05-19 09:58:00,
2013-05-19 06:00:00,64.7,63.8,30.07,West,278,0.0,0.0,97,0.00,,,0.00,Wunderground v.1.15,2013-05-19 10:00:00,
2013-05-19 06:01:00,64.7,63.8,30.07,West,278,0.0,0.0,97,0.00,,,0.00,Wunderground v.1.15,2013-05-19 10:01:00,
2013-05-19 06:03:00,64.7,63.8,30.07,West,278,0.0,0.0,97,0.00,,,0.00,Wunderground v.1.15,2013-05-19 10:03:00,
2013-05-19 06:06:00,64.7,63.8,30.07,West,278,0.0,0.0,97,0.00,,,0.00,Wunderground v.1.15,2013-05-19 10:06:00,
2013-05-19 06:08:00,64.7,63.8,30.07,West,278,0.0,0.0,97,0.00,,,0.00,Wunderground v.1.15,2013-05-19 10:08:00,
2013-05-19 06:11:00,64.7,64.1,30.07,West,278,0.0,0.0,98,0.00,,,0.00,Wunderground v.1.15,2013-05-19 10:11:00,
2013-05-19 06:14:00,64.7,64.1,30.07,West,278,0.0,0.0,98,0.00,,,0.00,Wunderground v.1.15,2013-05-19 10:14:00,
2013-05-19 06:16:00,64.7,64.1,30.07,West,278,0.0,0.0,98,0.00,,,0.00,Wunderground v.1.15,2013-05-19 10:16:00,
2013-05-19 06:19:00,64.7,64.1,30.07,West,278,0.0,0.0,98,0.00,,,0.00,Wunderground v.1.15,2013-05-19 10:19:00,
2013-05-19 06:21:00,64.7,64.1,30.08,West,278,0.0,0.0,98,0.00,,,0.00,Wunderground v.1.15,2013-05-19 10:21:00,
2013-05-19 06:22:00,64.7,64.1,30.08,West,278,0.0,0.0,98,0.00,,,0.00,Wunderground v.1.15,2013-05-19 10:22:00,
2013-05-19 06:24:00,64.7,64.1,30.08,West,278,0.0,0.0,98,0.00,,,0.00,Wunderground v.1.15,2013-05-19 10:24:00,
2013-05-19 06:26:00,64.7,64.1,30.08,West,278,0.0,0.0,98,0.00,,,0.00,Wunderground v.1.15,2013-05-19 10:26:00,
2013-05-19 06:27:00,64.7,64.1,30.08,West,278,0.0,0.0,98,0.00,,,0.00,Wunderground v.1.15,2013-05-19 10:27:00,
2013-05-19 06:29:00,64.7,64.1,30.08,West,278,0.0,0.0,98,0.00,,,0.00,Wunderground v.1.15,2013-05-19 10:29:00,
2013-05-19 06:31:00,64.7,64.1,30.08,West,278,0.0,0.0,98,0.00,,,0.00,Wunderground v.1.15,2013-05-19 10:31:00,
2013-05-19 06:32:00,64.7,64.1,30.08,West,278,0.0,0.0,98,0.00,,,0.00,Wunderground v.1.15,2013-05-19 10:32:00,
2013-05-19 06:34:00,64.7,64.1,30.08,West,278,0.0,0.0,98,0.00,,,0.00,Wunderground v.1.15,2013-05-19 10:34:00,
2013-05-19 06:36:00,64.7,64.1,30.08,West,278,0.0,0.0,98,0.00,,,0.00,Wunderground v.1.15,2013-05-19 10:36:00,
2013-05-19 06:37:00,64.7,64.1,30.08,West,278,0.0,0.0,98,0.00,,,0.00,Wunderground v.1.15,2013-05-19 10:37:00,
2013-05-19 06:39:00,64.8,64.2,30.08,West,278,0.0,0.0,98,0.00,,,0.00,Wunderground v.1.15,2013-05-19 10:39:00,
2013-05-19 06:42:00,64.7,64.1,30.08,West,278,0.0,0.0,98,0.00,,,0.00,Wunderground v.1.15,2013-05-19 10:42:00,
2013-05-19 06:45:00,64.8,64.2,30.08,West,278,0.0,0.0,98,0.00,,,0.00,Wunderground v.1.15,2013-05-19 10:45:00,
2013-05-19 06:47:00,64.8,64.2,30.08,West,278,0.0,0.0,98,0.00,,,0.00,Wunderground v.1.15,2013-05-19 10:47:00,
2013-05-19 06:51:00,64.8,64.2,30.08,West,278,0.0,0.0,98,0.00,,,0.00,Wunderground v.1.15,2013-05-19 10:51:00,
2013-05-19 06:52:00,64.8,64.2,30.08,West,278,0.0,0.0,98,0.00,,,0.00,Wunderground v.1.15,2013-05-19 10:52:00,
2013-05-19 06:53:00,64.8,64.2,30.08,West,278,0.0,0.0,98,0.00,,,0.00,Wunderground v.1.15,2013-05-19 10:53:00,
2013-05-19 06:56:00,64.8,64.2,30.08,West,278,0.0,0.0,98,0.00,,,0.00,Wunderground v.1.15,2013-05-19 10:56:00,
2013-05-19 06:57:00,64.8,64.2,30.08,West,278,0.0,0.0,98,0.00,,,0.00,Wunderground v.1.15,2013-05-19 10:57:00,
2013-05-19 06:58:00,64.8,64.2,30.08,West,278,0.0,0.0,98,0.00,,,0.00,Wunderground v.1.15,2013-05-19 10:58:00,
2013-05-19 06:59:00,64.8,64.2,30.08,West,278,0.0,0.0,98,0.00,,,0.00,Wunderground v.1.15,2013-05-19 10:59:00,
2013-05-19 07:02:00,64.8,64.2,30.08,West,278,0.0,0.0,98,0.00,,,0.00,Wunderground v.1.15,2013-05-19 11:02:00,
2013-05-19 07:03:00,64.8,64.2,30.08,West,278,0.0,0.0,98,0.00,,,0.00,Wunderground v.1.15,2013-05-19 11:03:00,
2013-05-19 07:04:00,64.8,64.2,30.08,West,278,0.0,0.0,98,0.00,,,0.00,Wunderground v.1.15,2013-05-19 11:04:00,
2013-05-19 07:07:00,64.9,64.3,30.08,West,278,0.0,0.0,98,0.00,,,0.00,Wunderground v.1.15,2013-05-19 11:07:00,
2013-05-19 07:09:00,64.9,64.3,30.08,West,278,0.0,0.0,98,0.00,,,0.00,Wunderground v.1.15,2013-05-19 11:09:00,
2013-05-19 07:12:00,64.9,64.3,30.08,West,278,0.0,0.0,98,0.00,,,0.00,Wunderground v.1.15,2013-05-19 11:12:00,
2013-05-19 07:14:00,64.9,64.3,30.09,West,278,0.0,0.0,98,0.00,,,0.00,Wunderground v.1.15,2013-05-19 11:14:00,
2013-05-19 07:15:00,64.9,64.3,30.08,West,278,0.0,0.0,98,0.00,,,0.00,Wunderground v.1.15,2013-05-19 11:15:00,
2013-05-19 07:17:00,64.9,64.3,30.08,West,278,0.0,0.0,98,0.00,,,0.00,Wunderground v.1.15,2013-05-19 11:17:00,
2013-05-19 07:19:00,64.9,64.3,30.09,West,278,0.0,0.0,98,0.00,,,0.00,Wunderground v.1.15,2013-05-19 11:19:00,
2013-05-19 07:20:00,64.9,64.3,30.09,West,278,0.0,0.0,98,0.00,,,0.00,Wunderground v.1.15,2013-05-19 11:20:00,
2013-05-19 07:22:00,65.0,64.4,30.09,West,281,0.0,0.0,98,0.00,,,0.00,Wunderground v.1.15,2013-05-19 11:22:00,
2013-05-19 07:24:00,65.0,64.4,30.09,West,281,0.0,0.0,98,0.00,,,0.00,Wunderground v.1.15,2013-05-19 11:24:00,
2013-05-19 07:25:00,65.0,64.4,30.09,West,281,0.0,0.0,98,0.00,,,0.00,Wunderground v.1.15,2013-05-19 11:25:00,
2013-05-19 07:27:00,65.1,64.5,30.09,West,281,0.0,0.0,98,0.00,,,0.00,Wunderground v.1.15,2013-05-19 11:27:00,
2013-05-19 07:28:00,65.1,64.5,30.09,West,281,0.0,0.0,98,0.00,,,0.00,Wunderground v.1.15,2013-05-19 11:28:00,
2013-05-19 07:30:00,65.1,64.5,30.09,West,281,0.0,0.0,98,0.00,,,0.00,Wunderground v.1.15,2013-05-19 11:30:00,
2013-05-19 07:31:00,65.2,64.6,30.09,West,281,0.0,0.0,98,0.00,,,0.00,Wunderground v.1.15,2013-05-19 11:31:00,
2013-05-19 07:33:00,65.2,64.6,30.08,West,281,0.0,0.0,98,0.00,,,0.00,Wunderground v.1.15,2013-05-19 11:33:00,
2013-05-19 07:35:00,65.2,64.6,30.09,West,281,0.0,0.0,98,0.00,,,0.00,Wunderground v.1.15,2013-05-19 11:35:00,
2013-05-19 07:36:00,65.3,64.7,30.08,West,281,0.0,0.0,98,0.00,,,0.00,Wunderground v.1.15,2013-05-19 11:36:00,
2013-05-19 07:38:00,65.3,64.7,30.08,West,281,0.0,0.0,98,0.00,,,0.00,Wunderground v.1.15,2013-05-19 11:38:00,
2013-05-19 07:39:00,65.4,64.8,30.08,West,281,0.0,0.0,98,0.00,,,0.00,Wunderground v.1.15,2013-05-19 11:39:00,
2013-05-19 07:40:00,65.4,64.8,30.08,West,281,0.0,0.0,98,0.00,,,0.00,Wunderground v.1.15,2013-05-19 11:40:00,
2013-05-19 07:41:00,65.4,64.8,30.09,West,281,0.0,0.0,98,0.00,,,0.00,Wunderground v.1.15,2013-05-19 11:41:00,
2013-05-19 07:43:00,65.5,64.9,30.08,West,281,0.0,0.0,98,0.00,,,0.00,Wunderground v.1.15,2013-05-19 11:43:00,
2013-05-19 07:45:00,65.5,64.9,30.08,West,281,0.0,0.0,98,0.00,,,0.00,Wunderground v.1.15,2013-05-19 11:45:00,
2013-05-19 07:46:00,65.6,65.0,30.09,West,281,0.0,0.0,98,0.00,,,0.00,Wunderground v.1.15,2013-05-19 11:46:00,
2013-05-19 07:48:00,65.7,65.1,30.09,West,281,0.0,0.0,98,0.00,,,0.00,Wunderground v.1.15,2013-05-19 11:48:00,
2013-05-19 07:50:00,65.7,65.1,30.09,West,281,0.0,0.0,98,0.00,,,0.00,Wunderground v.1.15,2013-05-19 11:50:00,
2013-05-19 07:51:00,65.7,65.1,30.09,West,281,0.0,0.0,98,0.00,,,0.00,Wunderground v.1.15,2013-05-19 11:51:00,
2013-05-19 07:54:00,65.8,65.2,30.09,West,281,0.0,0.0,98,0.00,,,0.00,Wunderground v.1.15,2013-05-19 11:54:00,
2013-05-19 07:55:00,65.8,65.2,30.08,West,281,0.0,0.0,98,0.00,,,0.00,Wunderground v.1.15,2013-05-19 11:55:00,
2013-05-19 07:56:00,65.8,65.2,30.08,West,281,0.0,0.0,98,0.00,,,0.00,Wunderground v.1.15,2013-05-19 11:56:00,
2013-05-19 07:57:00,65.8,65.2,30.08,West,281,0.0,0.0,98,0.00,,,0.00,Wunderground v.1.15,2013-05-19 11:57:00,
2013-05-19 07:59:00,65.9,65.3,30.08,West,281,0.0,0.0,98,0.00,,,0.00,Wunderground v.1.15,2013-05-19 11:59:00,
2013-05-19 08:00:00,65.9,65.3,30.08,West,281,0.0,0.0,98,0.00,,,0.00,Wunderground v.1.15,2013-05-19 12:00:00,
2013-05-19 08:01:00,66.0,65.4,30.08,West,281,0.0,0.0,98,0.00,,,0.00,Wunderground v.1.15,2013-05-19 12:01:00,
2013-05-19 08:02:00,65.9,65.3,30.08,West,281,0.0,0.0,98,0.00,,,0.00,Wunderground v.1.15,2013-05-19 12:02:00,
2013-05-19 08:04:00,66.0,65.4,30.09,West,281,0.0,0.0,98,0.00,,,0.00,Wunderground v.1.15,2013-05-19 12:04:00,
2013-05-19 08:05:00,66.0,65.4,30.09,West,281,0.0,0.0,98,0.00,,,0.00,Wunderground v.1.15,2013-05-19 12:05:00,
2013-05-19 08:06:00,66.1,65.5,30.09,West,281,0.0,0.0,98,0.00,,,0.00,Wunderground v.1.15,2013-05-19 12:06:00,
2013-05-19 08:07:00,66.1,65.5,30.09,West,281,0.0,0.0,98,0.00,,,0.00,Wunderground v.1.15,2013-05-19 12:07:00,
2013-05-19 08:08:00,66.1,65.5,30.09,West,281,0.0,0.0,98,0.00,,,0.00,Wunderground v.1.15,2013-05-19 12:08:00,
2013-05-19 08:09:00,66.1,65.5,30.09,West,281,0.0,0.0,98,0.00,,,0.00,Wunderground v.1.15,2013-05-19 12:09:00,
2013-05-19 08:10:00,66.2,65.6,30.09,West,281,0.0,0.0,98,0.00,,,0.00,Wunderground v.1.15,2013-05-19 12:10:00,
2013-05-19 08:11:00,66.2,65.6,30.09,West,281,0.0,0.0,98,0.00,,,0.00,Wunderground v.1.15,2013-05-19 12:11:00,
2013-05-19 08:12:00,66.2,65.6,30.09,West,281,0.0,0.0,98,0.00,,,0.00,Wunderground v.1.15,2013-05-19 12:12:00,
2013-05-19 08:13:00,66.2,65.6,30.09,West,281,0.0,0.0,98,0.00,,,0.00,Wunderground v.1.15,2013-05-19 12:13:00,
2013-05-19 08:15:00,66.3,65.7,30.09,West,281,0.0,0.0,98,0.00,,,0.00,Wunderground v.1.15,2013-05-19 12:15:00,
2013-05-19 08:16:00,66.4,65.8,30.09,West,281,0.0,0.0,98,0.00,,,0.00,Wunderground v.1.15,2013-05-19 12:16:00,
2013-05-19 08:17:00,66.4,65.8,30.09,West,281,0.0,0.0,98,0.00,,,0.00,Wunderground v.1.15,2013-05-19 12:17:00,
2013-05-19 08:18:00,66.4,65.8,30.09,West,281,0.0,0.0,98,0.00,,,0.00,Wunderground v.1.15,2013-05-19 12:18:00,
2013-05-19 08:20:00,66.5,65.6,30.09,West,281,0.0,0.0,97,0.00,,,0.00,Wunderground v.1.15,2013-05-19 12:20:00,
2013-05-19 08:22:00,66.5,65.6,30.09,West,281,0.0,0.0,97,0.00,,,0.00,Wunderground v.1.15,2013-05-19 12:22:00,
2013-05-19 08:23:00,66.5,65.6,30.09,West,281,0.0,0.0,97,0.00,,,0.00,Wunderground v.1.15,2013-05-19 12:23:00,
2013-05-19 08:25:00,66.5,65.6,30.09,West,281,0.0,0.0,97,0.00,,,0.00,Wunderground v.1.15,2013-05-19 12:25:00,
2013-05-19 08:27:00,66.5,65.6,30.09,West,281,0.0,0.0,97,0.00,,,0.00,Wunderground v.1.15,2013-05-19 12:27:00,
2013-05-19 08:28:00,66.6,65.7,30.09,West,281,0.0,0.0,97,0.00,,,0.00,Wunderground v.1.15,2013-05-19 12:28:00,
2013-05-19 08:30:00,66.6,65.7,30.09,West,281,0.0,0.0,97,0.00,,,0.00,Wunderground v.1.15,2013-05-19 12:30:00,
2013-05-19 08:32:00,66.6,65.7,30.09,West,281,0.0,0.0,97,0.00,,,0.00,Wunderground v.1.15,2013-05-19 12:32:00,
2013-05-19 08:33:00,66.6,65.7,30.09,WSW,248,0.0,0.0,97,0.00,,,0.00,Wunderground v.1.15,2013-05-19 12:33:00,
2013-05-19 08:35:00,66.5,65.6,30.09,WSW,248,0.0,0.0,97,0.00,,,0.00,Wunderground v.1.15,2013-05-19 12:35:00,
2013-05-19 08:36:00,66.5,65.6,30.09,WSW,248,0.0,0.0,97,0.00,,,0.00,Wunderground v.1.15,2013-05-19 12:36:00,
2013-05-19 08:37:00,66.5,65.6,30.09,WSW,248,0.0,0.0,97,0.00,,,0.00,Wunderground v.1.15,2013-05-19 12:37:00,
2013-05-19 08:39:00,66.6,65.7,30.09,WSW,248,0.0,0.0,97,0.00,,,0.00,Wunderground v.1.15,2013-05-19 12:39:00,
2013-05-19 08:41:00,66.6,65.7,30.09,WSW,248,0.0,0.0,97,0.00,,,0.00,Wunderground v.1.15,2013-05-19 12:41:00,
2013-05-19 08:42:00,66.6,65.7,30.09,WSW,248,0.0,0.0,97,0.00,,,0.00,Wunderground v.1.15,2013-05-19 12:42:00,
2013-05-19 08:43:00,66.6,65.7,30.09,WSW,248,0.0,0.0,97,0.00,,,0.00,Wunderground v.1.15,2013-05-19 12:43:00,
2013-05-19 08:44:00,66.6,65.7,30.10,WSW,248,0.0,0.0,97,0.00,,,0.00,Wunderground v.1.15,2013-05-19 12:44:00,
2013-05-19 08:46:00,66.6,65.7,30.09,WSW,247,0.0,0.0,97,0.00,,,0.00,Wunderground v.1.15,2013-05-19 12:46:00,
2013-05-19 08:47:00,66.7,65.8,30.09,WSW,248,0.0,0.0,97,0.00,,,0.00,Wunderground v.1.15,2013-05-19 12:47:00,
2013-05-19 08:48:00,66.7,65.8,30.09,WSW,248,0.0,0.0,97,0.00,,,0.00,Wunderground v.1.15,2013-05-19 12:48:00,
2013-05-19 08:50:00,66.7,65.8,30.09,WSW,248,0.0,0.0,97,0.00,,,0.00,Wunderground v.1.15,2013-05-19 12:50:00,
2013-05-19 08:51:00,66.8,65.9,30.09,WSW,248,0.0,0.0,97,0.00,,,0.00,Wunderground v.1.15,2013-05-19 12:51:00,
2013-05-19 08:52:00,66.8,65.9,30.09,WSW,247,0.0,0.0,97,0.00,,,0.00,Wunderground v.1.15,2013-05-19 12:52:00,
2013-05-19 08:53:00,66.8,65.9,30.09,WSW,248,0.0,0.0,97,0.00,,,0.00,Wunderground v.1.15,2013-05-19 12:53:00,
2013-05-19 08:55:00,66.9,66.0,30.10,WSW,248,0.0,0.0,97,0.00,,,0.00,Wunderground v.1.15,2013-05-19 12:55:00,
2013-05-19 08:57:00,67.0,66.1,30.10,WSW,248,0.0,0.0,97,0.00,,,0.00,Wunderground v.1.15,2013-05-19 12:57:00,
2013-05-19 08:58:00,67.1,66.2,30.10,WSW,248,0.0,0.0,97,0.00,,,0.00,Wunderground v.1.15,2013-05-19 12:58:00,
2013-05-19 09:00:00,67.2,66.3,30.10,WSW,248,0.0,0.0,97,0.00,,,0.00,Wunderground v.1.15,2013-05-19 13:00:00,
2013-05-19 09:02:00,67.3,66.4,30.10,WSW,248,0.0,0.0,97,0.00,,,0.00,Wunderground v.1.15,2013-05-19 13:02:00,
2013-05-19 09:03:00,67.3,66.4,30.10,SW,235,0.0,0.0,97,0.00,,,0.00,Wunderground v.1.15,2013-05-19 13:03:00,
2013-05-19 09:05:00,67.6,66.7,30.10,WSW,240,0.0,0.0,97,0.00,,,0.00,Wunderground v.1.15,2013-05-19 13:05:00,
2013-05-19 09:07:00,68.0,67.1,30.10,SW,225,0.0,0.0,97,0.00,,,0.00,Wunderground v.1.15,2013-05-19 13:07:00,
2013-05-19 09:08:00,68.0,67.1,30.10,WSW,238,2.0,3.0,97,0.00,,,0.00,Wunderground v.1.15,2013-05-19 13:08:00,
2013-05-19 09:09:00,68.0,66.8,30.10,WSW,245,1.0,3.0,96,0.00,,,0.00,Wunderground v.1.15,2013-05-19 13:09:00,
2013-05-19 09:11:00,68.2,67.0,30.10,WSW,245,0.0,1.0,96,0.00,,,0.00,Wunderground v.1.15,2013-05-19 13:11:00,
2013-05-19 09:12:00,68.2,66.7,30.10,WSW,239,1.0,3.0,95,0.00,,,0.00,Wunderground v.1.15,2013-05-19 13:12:00,
2013-05-19 09:14:00,68.2,66.4,30.10,SW,233,0.0,3.0,94,0.00,,,0.00,Wunderground v.1.15,2013-05-19 13:14:00,
2013-05-19 09:16:00,68.2,66.4,30.10,SW,215,1.0,3.0,94,0.00,,,0.00,Wunderground v.1.15,2013-05-19 13:16:00,
2013-05-19 09:17:00,68.3,66.5,30.10,South,188,0.0,3.0,94,0.00,,,0.00,Wunderground v.1.15,2013-05-19 13:17:00,
2013-05-19 09:19:00,68.3,66.5,30.10,SW,236,1.0,3.0,94,0.00,,,0.00,Wunderground v.1.15,2013-05-19 13:19:00,
2013-05-19 09:21:00,68.2,66.1,30.10,WSW,245,0.0,1.0,93,0.00,,,0.00,Wunderground v.1.15,2013-05-19 13:21:00,
2013-05-19 09:22:00,68.2,66.1,30.10,SW,225,0.0,2.0,93,0.00,,,0.00,Wunderground v.1.15,2013-05-19 13:22:00,
2013-05-19 09:23:00,68.2,66.1,30.10,SW,225,0.0,2.0,93,0.00,,,0.00,Wunderground v.1.15,2013-05-19 13:23:00,
2013-05-19 09:24:00,68.2,66.4,30.10,SW,225,0.0,2.0,94,0.00,,,0.00,Wunderground v.1.15,2013-05-19 13:24:00,
2013-05-19 09:25:00,68.3,66.5,30.10,SW,225,0.0,2.0,94,0.00,,,0.00,Wunderground v.1.15,2013-05-19 13:25:00,
2013-05-19 09:26:00,68.3,66.5,30.10,SW,225,0.0,2.0,94,0.00,,,0.00,Wunderground v.1.15,2013-05-19 13:26:00,
2013-05-19 09:28:00,68.4,66.6,30.10,WSW,253,1.0,2.0,94,0.00,,,0.00,Wunderground v.1.15,2013-05-19 13:28:00,
2013-05-19 09:29:00,68.3,66.5,30.10,WSW,253,0.0,2.0,94,0.00,,,0.00,Wunderground v.1.15,2013-05-19 13:29:00,
2013-05-19 09:30:00,68.4,66.6,30.10,WSW,253,0.0,0.0,94,0.00,,,0.00,Wunderground v.1.15,2013-05-19 13:30:00,
2013-05-19 09:31:00,68.4,66.6,30.10,WSW,253,0.0,0.0,94,0.00,,,0.00,Wunderground v.1.15,2013-05-19 13:31:00,
2013-05-19 09:34:00,68.5,66.7,30.10,North,354,0.0,1.0,94,0.00,,,0.00,Wunderground v.1.15,2013-05-19 13:34:00,
2013-05-19 09:35:00,68.6,66.8,30.10,WSW,248,1.0,1.0,94,0.00,,,0.00,Wunderground v.1.15,2013-05-19 13:35:00,
2013-05-19 09:36:00,68.6,66.5,30.10,SW,235,0.0,2.0,93,0.00,,,0.00,Wunderground v.1.15,2013-05-19 13:36:00,
2013-05-19 09:39:00,68.7,66.6,30.10,SW,235,0.0,2.0,93,0.00,,,0.00,Wunderground v.1.15,2013-05-19 13:39:00,
2013-05-19 09:40:00,68.9,67.1,30.10,SW,235,0.0,1.0,94,0.00,,,0.00,Wunderground v.1.15,2013-05-19 13:40:00,
2013-05-19 09:41:00,68.9,66.8,30.10,SW,235,2.0,2.0,93,0.00,,,0.00,Wunderground v.1.15,2013-05-19 13:41:00,
2013-05-19 09:44:00,68.9,66.8,30.10,West,260,1.0,2.0,93,0.00,,,0.00,Wunderground v.1.15,2013-05-19 13:44:00,
2013-05-19 09:45:00,68.9,66.5,30.10,SW,229,4.0,4.0,92,0.00,,,0.00,Wunderground v.1.15,2013-05-19 13:45:00,
2013-05-19 09:47:00,68.9,66.2,30.10,South,183,2.0,4.0,91,0.00,,,0.00,Wunderground v.1.15,2013-05-19 13:47:00,
2013-05-19 09:49:00,68.9,66.5,30.10,South,183,0.0,4.0,92,0.00,,,0.00,Wunderground v.1.15,2013-05-19 13:49:00,
2013-05-19 09:50:00,68.9,66.5,30.10,South,186,0.0,1.0,92,0.00,,,0.00,Wunderground v.1.15,2013-05-19 13:50:00,
2013-05-19 09:52:00,68.9,66.5,30.10,SSW,204,0.0,1.0,92,0.00,,,0.00,Wunderground v.1.15,2013-05-19 13:52:00,
2013-05-19 09:54:00,69.0,66.3,30.10,SW,222,1.0,3.0,91,0.00,,,0.00,Wunderground v.1.15,2013-05-19 13:54:00,
2013-05-19 09:55:00,69.0,66.3,30.10,SW,222,0.0,3.0,91,0.00,,,0.00,Wunderground v.1.15,2013-05-19 13:55:00,
2013-05-19 09:56:00,69.0,66.3,30.10,SW,222,0.0,3.0,91,0.00,,,0.00,Wunderground v.1.15,2013-05-19 13:56:00,
2013-05-19 09:57:00,69.0,66.6,30.10,SW,222,0.0,3.0,92,0.00,,,0.00,Wunderground v.1.15,2013-05-19 13:57:00,
2013-05-19 10:00:00,69.1,66.4,30.10,SW,221,0.0,1.0,91,0.00,,,0.00,Wunderground v.1.15,2013-05-19 14:00:00,
2013-05-19 10:01:00,69.1,66.4,30.10,SW,221,0.0,1.0,91,0.00,,,0.00,Wunderground v.1.15,2013-05-19 14:01:00,
2013-05-19 10:03:00,69.1,66.4,30.10,SW,232,0.0,4.0,91,0.00,,,0.00,Wunderground v.1.15,2013-05-19 14:03:00,
2013-05-19 10:05:00,69.1,66.4,30.10,SW,232,0.0,4.0,91,0.00,,,0.00,Wunderground v.1.15,2013-05-19 14:05:00,
2013-05-19 10:06:00,69.1,66.4,30.10,SW,221,3.0,4.0,91,0.00,,,0.00,Wunderground v.1.15,2013-05-19 14:06:00,
2013-05-19 10:09:00,69.0,65.9,30.10,SW,217,1.0,4.0,90,0.00,,,0.00,Wunderground v.1.15,2013-05-19 14:09:00,
2013-05-19 10:10:00,69.0,65.9,30.10,West,273,2.0,2.0,90,0.00,,,0.00,Wunderground v.1.15,2013-05-19 14:10:00,
2013-05-19 10:11:00,69.0,65.9,30.10,SW,217,3.0,4.0,90,0.00,,,0.00,Wunderground v.1.15,2013-05-19 14:11:00,
2013-05-19 10:14:00,68.9,65.8,30.10,SW,233,0.0,4.0,90,0.00,,,0.00,Wunderground v.1.15,2013-05-19 14:14:00,
2013-05-19 10:15:00,68.9,66.2,30.10,WSW,248,2.0,4.0,91,0.00,,,0.00,Wunderground v.1.15,2013-05-19 14:15:00,
2013-05-19 10:16:00,68.9,66.2,30.10,WSW,248,0.0,4.0,91,0.00,,,0.00,Wunderground v.1.15,2013-05-19 14:16:00,
2013-05-19 10:19:00,68.9,65.8,30.10,SW,232,1.0,4.0,90,0.00,,,0.00,Wunderground v.1.15,2013-05-19 14:19:00,
2013-05-19 10:20:00,68.8,66.1,30.10,SW,229,0.0,2.0,91,0.00,,,0.00,Wunderground v.1.15,2013-05-19 14:20:00,
2013-05-19 10:21:00,68.8,66.1,30.10,SW,229,0.0,2.0,91,0.00,,,0.00,Wunderground v.1.15,2013-05-19 14:21:00,
2013-05-19 10:24:00,68.8,66.1,30.10,South,188,1.0,2.0,91,0.00,,,0.00,Wunderground v.1.15,2013-05-19 14:24:00,
2013-05-19 10:25:00,68.8,66.1,30.10,SW,225,1.0,2.0,91,0.00,,,0.00,Wunderground v.1.15,2013-05-19 14:25:00,
2013-05-19 10:26:00,68.9,66.2,30.10,SW,225,1.0,2.0,91,0.00,,,0.00,Wunderground v.1.15,2013-05-19 14:26:00,
2013-05-19 10:29:00,68.9,66.2,30.10,SW,229,0.0,3.0,91,0.00,,,0.00,Wunderground v.1.15,2013-05-19 14:29:00,
2013-05-19 10:30:00,68.9,66.2,30.10,SW,229,0.0,1.0,91,0.00,,,0.00,Wunderground v.1.15,2013-05-19 14:30:00,
2013-05-19 10:31:00,68.9,66.2,30.10,SW,229,0.0,1.0,91,0.00,,,0.00,Wunderground v.1.15,2013-05-19 14:31:00,
2013-05-19 10:35:00,69.1,66.4,30.10,SW,229,1.0,1.0,91,0.00,,,0.00,Wunderground v.1.15,2013-05-19 14:35:00,
2013-05-19 10:36:00,69.2,66.5,30.09,SW,230,3.0,4.0,91,0.00,,,0.00,Wunderground v.1.15,2013-05-19 14:36:00,
2013-05-19 10:37:00,69.2,66.1,30.10,SW,232,1.0,4.0,90,0.00,,,0.00,Wunderground v.1.15,2013-05-19 14:37:00,
2013-05-19 10:40:00,69.4,66.7,30.10,WSW,238,0.0,1.0,91,0.00,,,0.00,Wunderground v.1.15,2013-05-19 14:40:00,
2013-05-19 10:41:00,69.4,67.0,30.10,WSW,238,0.0,1.0,92,0.00,,,0.00,Wunderground v.1.15,2013-05-19 14:41:00,
2013-05-19 10:42:00,69.5,66.8,30.09,SW,233,2.0,2.0,91,0.00,,,0.00,Wunderground v.1.15,2013-05-19 14:42:00,
2013-05-19 10:45:00,69.6,66.5,30.09,SW,221,1.0,2.0,90,0.00,,,0.00,Wunderground v.1.15,2013-05-19 14:45:00,
2013-05-19 10:46:00,69.6,66.5,30.09,SW,221,0.0,2.0,90,0.00,,,0.00,Wunderground v.1.15,2013-05-19 14:46:00,
2013-05-19 10:47:00,69.6,66.5,30.09,SW,221,0.0,2.0,90,0.00,,,0.00,Wunderground v.1.15,2013-05-19 14:47:00,
2013-05-19 10:50:00,69.6,66.5,30.09,SSW,204,1.0,2.0,90,0.00,,,0.00,Wunderground v.1.15,2013-05-19 14:50:00,
2013-05-19 10:51:00,69.7,66.6,30.09,SSW,204,0.0,2.0,90,0.00,,,0.00,Wunderground v.1.15,2013-05-19 14:51:00,
2013-05-19 10:52:00,69.7,66.6,30.09,SSW,204,0.0,2.0,90,0.00,,,0.00,Wunderground v.1.15,2013-05-19 14:52:00,
2013-05-19 10:55:00,70.0,66.9,30.09,SW,228,0.0,2.0,90,0.00,,,0.00,Wunderground v.1.15,2013-05-19 14:55:00,
2013-05-19 10:56:00,70.0,66.9,30.09,SW,229,0.0,2.0,90,0.00,,,0.00,Wunderground v.1.15,2013-05-19 14:56:00,
2013-05-19 10:57:00,70.1,67.0,30.09,SW,235,2.0,2.0,90,0.00,,,0.00,Wunderground v.1.15,2013-05-19 14:57:00,
2013-05-19 11:01:00,70.4,67.0,30.09,SSE,148,1.0,1.0,89,0.00,,,0.00,Wunderground v.1.15,2013-05-19 15:01:00,
2013-05-19 11:02:00,70.4,67.3,30.09,NW,308,2.0,2.0,90,0.00,,,0.00,Wunderground v.1.15,2013-05-19 15:02:00,
2013-05-19 11:03:00,70.4,67.0,30.09,ENE,58,1.0,2.0,89,0.00,,,0.00,Wunderground v.1.15,2013-05-19 15:03:00,
2013-05-19 11:06:00,70.5,67.1,30.09,ENE,58,0.0,2.0,89,0.00,,,0.00,Wunderground v.1.15,2013-05-19 15:06:00,
2013-05-19 11:07:00,70.6,67.2,30.09,ENE,58,1.0,2.0,89,0.00,,,0.00,Wunderground v.1.15,2013-05-19 15:07:00,
2013-05-19 11:08:00,70.7,67.3,30.09,ENE,58,0.0,2.0,89,0.00,,,0.00,Wunderground v.1.15,2013-05-19 15:08:00,
2013-05-19 11:11:00,70.8,67.4,30.09,ENE,66,0.0,1.0,89,0.00,,,0.00,Wunderground v.1.15,2013-05-19 15:11:00,
2013-05-19 11:12:00,70.8,67.4,30.09,ENE,66,0.0,1.0,89,0.00,,,0.00,Wunderground v.1.15,2013-05-19 15:12:00,
2013-05-19 11:13:00,70.9,67.5,30.09,ENE,66,0.0,1.0,89,0.00,,,0.00,Wunderground v.1.15,2013-05-19 15:13:00,
2013-05-19 11:14:00,71.0,67.9,30.09,SE,139,0.0,1.0,90,0.00,,,0.00,Wunderground v.1.15,2013-05-19 15:14:00,
2013-05-19 11:16:00,71.1,67.4,30.09,SE,139,0.0,1.0,88,0.00,,,0.00,Wunderground v.1.15,2013-05-19 15:16:00,
2013-05-19 11:17:00,71.1,67.4,30.09,SE,140,0.0,1.0,88,0.00,,,0.00,Wunderground v.1.15,2013-05-19 15:17:00,
2013-05-19 11:18:00,71.1,67.4,30.09,SE,140,0.0,1.0,88,0.00,,,0.00,Wunderground v.1.15,2013-05-19 15:18:00,
2013-05-19 11:19:00,71.2,67.8,30.09,West,271,1.0,1.0,89,0.00,,,0.00,Wunderground v.1.15,2013-05-19 15:19:00,
2013-05-19 11:22:00,71.4,67.7,30.09,SSW,205,0.0,2.0,88,0.00,,,0.00,Wunderground v.1.15,2013-05-19 15:22:00,
2013-05-19 11:23:00,71.4,67.7,30.09,SSW,205,0.0,2.0,88,0.00,,,0.00,Wunderground v.1.15,2013-05-19 15:23:00,
2013-05-19 11:24:00,71.6,67.5,30.09,SSW,205,0.0,2.0,87,0.00,,,0.00,Wunderground v.1.15,2013-05-19 15:24:00,
2013-05-19 11:27:00,71.8,67.7,30.08,SE,131,0.0,2.0,87,0.00,,,0.00,Wunderground v.1.15,2013-05-19 15:27:00,
2013-05-19 11:28:00,71.9,67.8,30.08,SE,131,1.0,2.0,87,0.00,,,0.00,Wunderground v.1.15,2013-05-19 15:28:00,
2013-05-19 11:29:00,71.9,67.5,30.08,WSW,239,3.0,3.0,86,0.00,,,0.00,Wunderground v.1.15,2013-05-19 15:29:00,
2013-05-19 11:30:00,71.9,67.1,30.08,SW,232,0.0,1.0,85,0.00,,,0.00,Wunderground v.1.15,2013-05-19 15:30:00,
2013-05-19 11:32:00,72.0,67.9,30.08,WSW,238,0.0,1.0,87,0.00,,,0.00,Wunderground v.1.15,2013-05-19 15:32:00,
2013-05-19 11:33:00,72.0,67.9,30.08,WSW,238,0.0,1.0,87,0.00,,,0.00,Wunderground v.1.15,2013-05-19 15:33:00,
2013-05-19 11:35:00,72.1,67.7,30.08,SW,215,0.0,3.0,86,0.00,,,0.00,Wunderground v.1.15,2013-05-19 15:35:00,
2013-05-19 11:36:00,72.1,67.7,30.08,SW,236,0.0,3.0,86,0.00,,,0.00,Wunderground v.1.15,2013-05-19 15:36:00,
2013-05-19 11:37:00,72.1,67.3,30.08,NNE,18,2.0,3.0,85,0.00,,,0.00,Wunderground v.1.15,2013-05-19 15:37:00,
2013-05-19 11:38:00,72.2,67.4,30.08,NNE,18,1.0,3.0,85,0.00,,,0.00,Wunderground v.1.15,2013-05-19 15:38:00,
2013-05-19 11:40:00,72.2,67.8,30.08,NNE,18,0.0,1.0,86,0.00,,,0.00,Wunderground v.1.15,2013-05-19 15:40:00,
2013-05-19 11:41:00,72.2,67.8,30.08,NNE,18,0.0,1.0,86,0.00,,,0.00,Wunderground v.1.15,2013-05-19 15:41:00,
2013-05-19 11:42:00,72.2,67.8,30.08,NNE,18,0.0,1.0,86,0.00,,,0.00,Wunderground v.1.15,2013-05-19 15:42:00,
2013-05-19 11:43:00,72.1,67.7,30.08,NNE,18,0.0,1.0,86,0.00,,,0.00,Wunderground v.1.15,2013-05-19 15:43:00,
2013-05-19 11:45:00,72.2,67.8,30.08,NNE,18,0.0,1.0,86,0.00,,,0.00,Wunderground v.1.15,2013-05-19 15:45:00,
2013-05-19 11:46:00,72.2,67.8,30.08,NNE,18,0.0,1.0,86,0.00,,,0.00,Wunderground v.1.15,2013-05-19 15:46:00,
2013-05-19 11:47:00,72.3,67.9,30.08,NNE,18,0.0,1.0,86,0.00,,,0.00,Wunderground v.1.15,2013-05-19 15:47:00,
2013-05-19 11:48:00,72.3,67.9,30.08,NNE,17,0.0,1.0,86,0.00,,,0.00,Wunderground v.1.15,2013-05-19 15:48:00,
2013-05-19 11:49:00,72.3,67.9,30.08,NNE,18,0.0,1.0,86,0.00,,,0.00,Wunderground v.1.15,2013-05-19 15:49:00,
2013-05-19 11:50:00,72.4,68.0,30.08,North,360,0.0,0.0,86,0.00,,,0.00,Wunderground v.1.15,2013-05-19 15:50:00,
2013-05-19 11:51:00,72.4,67.6,30.08,North,360,0.0,0.0,85,0.00,,,0.00,Wunderground v.1.15,2013-05-19 15:51:00,
2013-05-19 11:53:00,72.5,67.7,30.08,SW,232,0.0,0.0,85,0.00,,,0.00,Wunderground v.1.15,2013-05-19 15:53:00,
2013-05-19 11:54:00,72.6,68.5,30.08,SW,225,1.0,1.0,87,0.00,,,0.00,Wunderground v.1.15,2013-05-19 15:54:00,
2013-05-19 11:55:00,72.8,68.4,30.08,SW,231,1.0,2.0,86,0.00,,,0.00,Wunderground v.1.15,2013-05-19 15:55:00,
2013-05-19 11:56:00,72.8,68.0,30.08,WSW,238,2.0,2.0,85,0.00,,,0.00,Wunderground v.1.15,2013-05-19 15:56:00,
2013-05-19 11:58:00,73.0,68.2,30.08,SSE,163,0.0,3.0,85,0.00,,,0.00,Wunderground v.1.15,2013-05-19 15:58:00,
2013-05-19 11:59:00,73.1,68.7,30.08,SSE,163,0.0,3.0,86,0.00,,,0.00,Wunderground v.1.15,2013-05-19 15:59:00,
2013-05-19 12:00:00,73.3,68.9,30.08,SE,129,0.0,1.0,86,0.00,,,0.00,Wunderground v.1.15,2013-05-19 16:00:00,
2013-05-19 12:01:00,73.4,69.0,30.08,SE,129,0.0,1.0,86,0.00,,,0.00,Wunderground v.1.15,2013-05-19 16:01:00,
2013-05-19 12:03:00,73.6,68.8,30.08,ESE,103,1.0,1.0,85,0.00,,,0.00,Wunderground v.1.15,2013-05-19 16:03:00,
2013-05-19 12:04:00,73.7,68.6,30.08,ESE,105,1.0,2.0,84,0.00,,,0.00,Wunderground v.1.15,2013-05-19 16:04:00,
2013-05-19 12:05:00,73.8,68.7,30.08,East,97,0.0,2.0,84,0.00,,,0.00,Wunderground v.1.15,2013-05-19 16:05:00,
2013-05-19 12:06:00,73.9,68.8,30.08,East,79,1.0,2.0,84,0.00,,,0.00,Wunderground v.1.15,2013-05-19 16:06:00,
2013-05-19 12:08:00,74.3,68.8,30.08,NW,316,0.0,2.0,83,0.00,,,0.00,Wunderground v.1.15,2013-05-19 16:08:00,
2013-05-19 12:09:00,74.4,68.9,30.08,North,4,0.0,2.0,83,0.00,,,0.00,Wunderground v.1.15,2013-05-19 16:09:00,
2013-05-19 12:10:00,74.7,68.8,30.08,NNW,344,1.0,1.0,82,0.00,,,0.00,Wunderground v.1.15,2013-05-19 16:10:00,
2013-05-19 12:12:00,74.8,68.6,30.08,WNW,301,2.0,3.0,81,0.00,,,0.00,Wunderground v.1.15,2013-05-19 16:12:00,
2013-05-19 12:13:00,75.1,68.9,30.08,SSW,198,0.0,3.0,81,0.00,,,0.00,Wunderground v.1.15,2013-05-19 16:13:00,
2013-05-19 12:14:00,75.2,69.0,30.08,SSW,198,0.0,3.0,81,0.00,,,0.00,Wunderground v.1.15,2013-05-19 16:14:00,
2013-05-19 12:15:00,75.4,69.2,30.08,SW,229,0.0,3.0,81,0.00,,,0.00,Wunderground v.1.15,2013-05-19 16:15:00,
2013-05-19 12:16:00,75.4,68.8,30.08,SW,229,0.0,3.0,80,0.00,,,0.00,Wunderground v.1.15,2013-05-19 16:16:00,
2013-05-19 12:17:00,75.5,68.5,30.07,WNW,284,1.0,3.0,79,0.00,,,0.00,Wunderground v.1.15,2013-05-19 16:17:00,
2013-05-19 12:18:00,75.6,68.6,30.07,ENE,57,1.0,3.0,79,0.00,,,0.00,Wunderground v.1.15,2013-05-19 16:18:00,
2013-05-19 12:19:00,75.5,68.5,30.07,NE,41,0.0,3.0,79,0.00,,,0.00,Wunderground v.1.15,2013-05-19 16:19:00,
2013-05-19 12:20:00,75.4,68.4,30.07,West,260,1.0,2.0,79,0.00,,,0.00,Wunderground v.1.15,2013-05-19 16:20:00,
2013-05-19 12:21:00,75.4,68.4,30.07,SW,232,2.0,2.0,79,0.00,,,0.00,Wunderground v.1.15,2013-05-19 16:21:00,
2013-05-19 12:22:00,75.1,67.4,30.08,SW,235,0.0,3.0,77,0.00,,,0.00,Wunderground v.1.15,2013-05-19 16:22:00,
2013-05-19 12:24:00,74.9,67.2,30.08,SW,230,2.0,3.0,77,0.00,,,0.00,Wunderground v.1.15,2013-05-19 16:24:00,
2013-05-19 12:25:00,74.7,67.0,30.07,WSW,237,2.0,3.0,77,0.00,,,0.00,Wunderground v.1.15,2013-05-19 16:25:00,
2013-05-19 12:26:00,74.5,67.2,30.08,SW,219,1.0,3.0,78,0.00,,,0.00,Wunderground v.1.15,2013-05-19 16:26:00,
2013-05-19 12:28:00,74.3,67.7,30.07,SW,219,1.0,3.0,80,0.00,,,0.00,Wunderground v.1.15,2013-05-19 16:28:00,
2013-05-19 12:29:00,74.1,67.5,30.07,SW,221,0.0,3.0,80,0.00,,,0.00,Wunderground v.1.15,2013-05-19 16:29:00,
2013-05-19 12:30:00,74.1,67.9,30.07,SW,221,0.0,1.0,81,0.00,,,0.00,Wunderground v.1.15,2013-05-19 16:30:00,
2013-05-19 12:31:00,74.2,68.0,30.07,SW,221,0.0,1.0,81,0.00,,,0.00,Wunderground v.1.15,2013-05-19 16:31:00,
2013-05-19 12:33:00,74.5,68.3,30.07,ESE,103,0.0,1.0,81,0.00,,,0.00,Wunderground v.1.15,2013-05-19 16:33:00,
2013-05-19 12:34:00,74.6,68.4,30.07,ESE,103,0.0,1.0,81,0.00,,,0.00,Wunderground v.1.15,2013-05-19 16:34:00,
2013-05-19 12:35:00,74.7,68.5,30.07,East,101,0.0,1.0,81,0.00,,,0.00,Wunderground v.1.15,2013-05-19 16:35:00,
2013-05-19 12:37:00,74.9,68.7,30.07,ESE,110,0.0,1.0,81,0.00,,,0.00,Wunderground v.1.15,2013-05-19 16:37:00,
2013-05-19 12:38:00,75.2,68.6,30.07,ESE,110,0.0,1.0,80,0.00,,,0.00,Wunderground v.1.15,2013-05-19 16:38:00,
2013-05-19 12:39:00,75.4,69.2,30.06,ENE,64,2.0,2.0,81,0.00,,,0.00,Wunderground v.1.15,2013-05-19 16:39:00,
2013-05-19 12:40:00,75.7,69.5,30.06,ENE,64,0.0,1.0,81,0.00,,,0.00,Wunderground v.1.15,2013-05-19 16:40:00,
2013-05-19 12:42:00,76.1,68.0,30.06,WSW,239,4.0,6.0,76,0.00,,,0.00,Wunderground v.1.15,2013-05-19 16:42:00,
2013-05-19 12:43:00,76.1,68.0,30.06,WSW,238,1.0,6.0,76,0.00,,,0.00,Wunderground v.1.15,2013-05-19 16:43:00,
2013-05-19 12:45:00,76.1,68.0,30.06,NE,41,0.0,6.0,76,0.00,,,0.00,Wunderground v.1.15,2013-05-19 16:45:00,
2013-05-19 12:46:00,76.2,68.5,30.06,NNW,342,1.0,6.0,77,0.00,,,0.00,Wunderground v.1.15,2013-05-19 16:46:00,
2013-05-19 12:47:00,76.2,68.5,30.06,NE,35,0.0,6.0,77,0.00,,,0.00,Wunderground v.1.15,2013-05-19 16:47:00,
2013-05-19 12:48:00,76.4,67.9,30.06,WSW,240,2.0,6.0,75,0.00,,,0.00,Wunderground v.1.15,2013-05-19 16:48:00,
2013-05-19 12:50:00,76.4,67.9,30.06,NNW,337,0.0,1.0,75,0.00,,,0.00,Wunderground v.1.15,2013-05-19 16:50:00,
2013-05-19 12:51:00,76.4,67.1,30.06,NNW,338,0.0,1.0,73,0.00,,,0.00,Wunderground v.1.15,2013-05-19 16:51:00,
2013-05-19 12:53:00,76.5,67.6,30.06,SW,231,1.0,2.0,74,0.00,,,0.00,Wunderground v.1.15,2013-05-19 16:53:00,
2013-05-19 12:54:00,76.5,68.0,30.06,NNW,330,0.0,2.0,75,0.00,,,0.00,Wunderground v.1.15,2013-05-19 16:54:00,
2013-05-19 12:55:00,76.7,68.6,30.06,NNE,19,0.0,2.0,76,0.00,,,0.00,Wunderground v.1.15,2013-05-19 16:55:00,
2013-05-19 12:56:00,76.8,69.4,30.06,West,269,0.0,2.0,78,0.00,,,0.00,Wunderground v.1.15,2013-05-19 16:56:00,
2013-05-19 12:58:00,77.0,68.5,30.06,WSW,252,3.0,3.0,75,0.00,,,0.00,Wunderground v.1.15,2013-05-19 16:58:00,
2013-05-19 12:59:00,77.3,68.0,30.06,SSW,211,2.0,3.0,73,0.00,,,0.00,Wunderground v.1.15,2013-05-19 16:59:00,
2013-05-19 13:00:00,77.5,67.8,30.06,West,274,1.0,1.0,72,0.00,,,0.00,Wunderground v.1.15,2013-05-19 17:00:00,
2013-05-19 13:01:00,77.6,67.4,30.06,West,274,0.0,1.0,71,0.00,,,0.00,Wunderground v.1.15,2013-05-19 17:01:00,
2013-05-19 13:02:00,77.6,67.4,30.06,SSW,193,0.0,1.0,71,0.00,,,0.00,Wunderground v.1.15,2013-05-19 17:02:00,
2013-05-19 13:03:00,77.7,67.1,30.06,SW,229,4.0,5.0,70,0.00,,,0.00,Wunderground v.1.15,2013-05-19 17:03:00,
2013-05-19 13:04:00,77.6,67.4,30.05,SSW,212,2.0,5.0,71,0.00,,,0.00,Wunderground v.1.15,2013-05-19 17:04:00,
2013-05-19 13:06:00,77.5,66.9,30.05,SSW,211,2.0,5.0,70,0.00,,,0.00,Wunderground v.1.15,2013-05-19 17:06:00,
2013-05-19 13:07:00,77.5,67.4,30.05,WSW,240,2.0,5.0,71,0.00,,,0.00,Wunderground v.1.15,2013-05-19 17:07:00,
2013-05-19 13:08:00,77.4,67.3,30.05,SW,236,1.0,5.0,71,0.00,,,0.00,Wunderground v.1.15,2013-05-19 17:08:00,
2013-05-19 13:09:00,77.4,67.7,30.05,SW,218,1.0,5.0,72,0.00,,,0.00,Wunderground v.1.15,2013-05-19 17:09:00,
2013-05-19 13:11:00,77.4,67.7,30.05,SW,215,0.0,2.0,72,0.00,,,0.00,Wunderground v.1.15,2013-05-19 17:11:00,
2013-05-19 13:12:00,77.5,67.8,30.05,ESE,107,1.0,2.0,72,0.00,,,0.00,Wunderground v.1.15,2013-05-19 17:12:00,
2013-05-19 13:13:00,77.7,68.4,30.04,East,101,1.0,2.0,73,0.00,,,0.00,Wunderground v.1.15,2013-05-19 17:13:00,
2013-05-19 13:15:00,77.7,68.4,30.04,East,101,0.0,2.0,73,0.00,,,0.00,Wunderground v.1.15,2013-05-19 17:15:00,
2013-05-19 13:16:00,77.7,68.0,30.05,ESE,103,0.0,2.0,72,0.00,,,0.00,Wunderground v.1.15,2013-05-19 17:16:00,
2013-05-19 13:17:00,77.8,67.6,30.05,ESE,103,0.0,2.0,71,0.00,,,0.00,Wunderground v.1.15,2013-05-19 17:17:00,
2013-05-19 13:18:00,77.8,67.2,30.05,SW,225,1.0,3.0,70,0.00,,,0.00,Wunderground v.1.15,2013-05-19 17:18:00,
2013-05-19 13:20:00,77.8,67.6,30.05,SW,224,0.0,1.0,71,0.00,,,0.00,Wunderground v.1.15,2013-05-19 17:20:00,
2013-05-19 13:21:00,77.7,68.4,30.05,SW,225,0.0,1.0,73,0.00,,,0.00,Wunderground v.1.15,2013-05-19 17:21:00,
2013-05-19 13:22:00,77.7,67.5,30.05,SW,228,1.0,4.0,71,0.00,,,0.00,Wunderground v.1.15,2013-05-19 17:22:00,
2013-05-19 13:24:00,77.5,67.8,30.05,SW,224,1.0,4.0,72,0.00,,,0.00,Wunderground v.1.15,2013-05-19 17:24:00,
2013-05-19 13:25:00,77.4,67.7,30.05,SW,229,1.0,4.0,72,0.00,,,0.00,Wunderground v.1.15,2013-05-19 17:25:00,
2013-05-19 13:26:00,77.2,67.5,30.05,WSW,246,4.0,4.0,72,0.00,,,0.00,Wunderground v.1.15,2013-05-19 17:26:00,
2013-05-19 13:27:00,76.9,67.2,30.05,WSW,238,3.0,5.0,72,0.00,,,0.00,Wunderground v.1.15,2013-05-19 17:27:00,
2013-05-19 13:30:00,76.5,67.2,30.05,WSW,238,0.0,2.0,73,0.00,,,0.00,Wunderground v.1.15,2013-05-19 17:30:00,
2013-05-19 13:31:00,76.4,67.1,30.05,SSW,201,2.0,7.0,73,0.00,,,0.00,Wunderground v.1.15,2013-05-19 17:31:00,
2013-05-19 13:32:00,76.3,67.4,30.05,SSW,200,1.0,7.0,74,0.00,,,0.00,Wunderground v.1.15,2013-05-19 17:32:00,
2013-05-19 13:35:00,76.1,68.0,30.05,SW,221,2.0,7.0,76,0.00,,,0.00,Wunderground v.1.15,2013-05-19 17:35:00,
2013-05-19 13:37:00,76.0,68.3,30.05,SSW,202,0.0,7.0,77,0.00,,,0.00,Wunderground v.1.15,2013-05-19 17:37:00,
2013-05-19 13:38:00,76.0,67.9,30.05,SW,232,3.0,7.0,76,0.00,,,0.00,Wunderground v.1.15,2013-05-19 17:38:00,
2013-05-19 13:40:00,75.7,67.6,30.04,SW,228,2.0,3.0,76,0.00,,,0.00,Wunderground v.1.15,2013-05-19 17:40:00,
2013-05-19 13:42:00,75.5,67.0,30.04,SW,229,2.0,3.0,75,0.00,,,0.00,Wunderground v.1.15,2013-05-19 17:42:00,
2013-05-19 13:43:00,75.3,66.8,30.04,SW,232,2.0,3.0,75,0.00,,,0.00,Wunderground v.1.15,2013-05-19 17:43:00,
2013-05-19 13:45:00,75.2,67.5,30.04,WSW,240,1.0,3.0,77,0.00,,,0.00,Wunderground v.1.15,2013-05-19 17:45:00,
2013-05-19 13:47:00,75.3,68.0,30.04,NW,316,0.0,3.0,78,0.00,,,0.00,Wunderground v.1.15,2013-05-19 17:47:00,
2013-05-19 13:50:00,75.8,68.4,30.04,ENE,77,1.0,2.0,78,0.00,,,0.00,Wunderground v.1.15,2013-05-19 17:50:00,
2013-05-19 13:52:00,76.2,68.5,30.04,SSE,160,0.0,2.0,77,0.00,,,0.00,Wunderground v.1.15,2013-05-19 17:52:00,
2013-05-19 13:53:00,76.3,68.6,30.04,SSE,160,0.0,2.0,77,0.00,,,0.00,Wunderground v.1.15,2013-05-19 17:53:00,
2013-05-19 13:55:00,76.9,69.1,30.04,SSW,213,0.0,2.0,77,0.00,,,0.00,Wunderground v.1.15,2013-05-19 17:55:00,
2013-05-19 13:56:00,77.1,68.9,30.04,SSW,213,0.0,2.0,76,0.00,,,0.00,Wunderground v.1.15,2013-05-19 17:56:00,
2013-05-19 13:57:00,77.6,69.4,30.03,ESE,107,2.0,2.0,76,0.00,,,0.00,Wunderground v.1.15,2013-05-19 17:57:00,
2013-05-19 13:58:00,77.7,69.5,30.03,NW,321,2.0,2.0,76,0.00,,,0.00,Wunderground v.1.15,2013-05-19 17:58:00,
2013-05-19 14:00:00,77.8,68.0,30.03,North,4,2.0,2.0,72,0.00,,,0.00,Wunderground v.1.15,2013-05-19 18:00:00,
2013-05-19 14:01:00,77.7,68.4,30.03,NE,43,1.0,2.0,73,0.00,,,0.00,Wunderground v.1.15,2013-05-19 18:01:00,
2013-05-19 14:02:00,77.6,68.3,30.03,NNE,30,2.0,2.0,73,0.00,,,0.00,Wunderground v.1.15,2013-05-19 18:02:00,
2013-05-19 14:03:00,77.5,68.2,30.03,NNE,30,1.0,2.0,73,0.00,,,0.00,Wunderground v.1.15,2013-05-19 18:03:00,
2013-05-19 14:05:00,77.2,68.7,30.04,NNE,29,0.0,2.0,75,0.00,,,0.00,Wunderground v.1.15,2013-05-19 18:05:00,
2013-05-19 14:06:00,77.2,68.7,30.04,NE,43,0.0,2.0,75,0.00,,,0.00,Wunderground v.1.15,2013-05-19 18:06:00,
2013-05-19 14:07:00,77.1,68.9,30.04,NE,42,0.0,2.0,76,0.00,,,0.00,Wunderground v.1.15,2013-05-19 18:07:00,
2013-05-19 14:08:00,77.1,68.9,30.04,NE,43,0.0,2.0,76,0.00,,,0.00,Wunderground v.1.15,2013-05-19 18:08:00,
2013-05-19 14:10:00,77.1,68.9,30.04,NE,43,0.0,1.0,76,0.00,,,0.00,Wunderground v.1.15,2013-05-19 18:10:00,
2013-05-19 14:12:00,76.9,69.1,30.04,NE,43,0.0,1.0,77,0.00,,,0.00,Wunderground v.1.15,2013-05-19 18:12:00,
2013-05-19 14:13:00,76.9,69.1,30.04,NE,43,0.0,1.0,77,0.00,,,0.00,Wunderground v.1.15,2013-05-19 18:13:00,
2013-05-19 14:15:00,76.8,68.7,30.04,SW,224,1.0,2.0,76,0.00,,,0.00,Wunderground v.1.15,2013-05-19 18:15:00,
2013-05-19 14:17:00,76.8,69.4,30.04,SSW,211,0.0,2.0,78,0.00,,,0.00,Wunderground v.1.15,2013-05-19 18:17:00,
2013-05-19 14:18:00,76.7,69.3,30.04,SSE,155,0.0,2.0,78,0.00,,,0.00,Wunderground v.1.15,2013-05-19 18:18:00,
2013-05-19 14:20:00,76.7,69.3,30.03,SE,139,0.0,0.0,78,0.00,,,0.00,Wunderground v.1.15,2013-05-19 18:20:00,
2013-05-19 14:22:00,76.6,68.8,30.03,SE,139,0.0,0.0,77,0.00,,,0.00,Wunderground v.1.15,2013-05-19 18:22:00,
2013-05-19 14:23:00,76.7,68.9,30.03,SE,140,0.0,0.0,77,0.00,,,0.00,Wunderground v.1.15,2013-05-19 18:23:00,
2013-05-19 14:24:00,76.7,68.9,30.03,SE,139,0.0,0.0,77,0.00,,,0.00,Wunderground v.1.15,2013-05-19 18:24:00,
2013-05-19 14:26:00,76.6,68.8,30.03,SE,139,0.0,0.0,77,0.00,,,0.00,Wunderground v.1.15,2013-05-19 18:26:00,
2013-05-19 14:27:00,76.5,69.1,30.03,SE,139,0.0,0.0,78,0.00,,,0.00,Wunderground v.1.15,2013-05-19 18:27:00,
2013-05-19 14:28:00,76.5,68.7,30.03,SE,143,0.0,0.0,77,0.00,,,0.00,Wunderground v.1.15,2013-05-19 18:28:00,
2013-05-19 14:29:00,76.5,68.7,30.03,SE,142,0.0,0.0,77,0.00,,,0.00,Wunderground v.1.15,2013-05-19 18:29:00,
2013-05-19 14:30:00,76.3,68.9,30.03,SE,142,0.0,0.0,78,0.00,,,0.00,Wunderground v.1.15,2013-05-19 18:30:00,
2013-05-19 14:32:00,76.3,69.3,30.03,SE,142,0.0,0.0,79,0.00,,,0.00,Wunderground v.1.15,2013-05-19 18:32:00,
2013-05-19 14:33:00,76.4,69.8,30.03,SE,143,0.0,0.0,80,0.00,,,0.00,Wunderground v.1.15,2013-05-19 18:33:00,
2013-05-19 14:34:00,76.3,69.7,30.03,SE,142,0.0,0.0,80,0.00,,,0.00,Wunderground v.1.15,2013-05-19 18:34:00,
2013-05-19 14:36:00,76.3,69.7,30.03,SE,142,0.0,0.0,80,0.00,,,0.00,Wunderground v.1.15,2013-05-19 18:36:00,
2013-05-19 14:38:00,76.3,69.3,30.03,SE,143,0.0,0.0,79,0.00,,,0.00,Wunderground v.1.15,2013-05-19 18:38:00,
2013-05-19 14:39:00,76.2,69.2,30.03,SE,143,0.0,0.0,79,0.00,,,0.00,Wunderground v.1.15,2013-05-19 18:39:00,
2013-05-19 14:40:00,76.1,69.1,30.03,SE,142,0.0,0.0,79,0.00,,,0.00,Wunderground v.1.15,2013-05-19 18:40:00,
2013-05-19 14:41:00,76.1,69.1,30.03,SE,142,0.0,0.0,79,0.00,,,0.00,Wunderground v.1.15,2013-05-19 18:41:00,
2013-05-19 14:43:00,76.2,69.6,30.03,SE,143,0.0,0.0,80,0.00,,,0.00,Wunderground v.1.15,2013-05-19 18:43:00,
2013-05-19 14:44:00,76.2,69.9,30.03,SE,142,0.0,0.0,81,0.00,,,0.00,Wunderground v.1.15,2013-05-19 18:44:00,
2013-05-19 14:45:00,76.4,69.8,30.03,SE,142,0.0,0.0,80,0.00,,,0.00,Wunderground v.1.15,2013-05-19 18:45:00,
2013-05-19 14:47:00,76.7,69.3,30.03,SE,139,2.0,2.0,78,0.00,,,0.00,Wunderground v.1.15,2013-05-19 18:47:00,
2013-05-19 14:48:00,76.9,69.9,30.03,SE,141,0.0,2.0,79,0.00,,,0.00,Wunderground v.1.15,2013-05-19 18:48:00,
2013-05-19 14:49:00,77.0,70.0,30.02,SE,141,1.0,2.0,79,0.00,,,0.00,Wunderground v.1.15,2013-05-19 18:49:00,
2013-05-19 14:50:00,77.0,69.2,30.02,WSW,255,4.0,5.0,77,0.00,,,0.00,Wunderground v.1.15,2013-05-19 18:50:00,
2013-05-19 14:52:00,77.3,69.5,30.02,East,83,2.0,5.0,77,0.00,,,0.00,Wunderground v.1.15,2013-05-19 18:52:00,
2013-05-19 14:54:00,77.4,70.0,30.02,ESE,110,1.0,5.0,78,0.00,,,0.00,Wunderground v.1.15,2013-05-19 18:54:00,
2013-05-19 14:55:00,77.4,70.0,30.02,SE,130,1.0,5.0,78,0.00,,,0.00,Wunderground v.1.15,2013-05-19 18:55:00,
2013-05-19 14:57:00,77.8,70.4,30.02,ENE,58,1.0,5.0,78,0.00,,,0.00,Wunderground v.1.15,2013-05-19 18:57:00,
2013-05-19 14:59:00,78.2,70.4,30.02,East,98,3.0,5.0,77,0.00,,,0.00,Wunderground v.1.15,2013-05-19 18:59:00,
2013-05-19 15:00:00,78.3,70.1,30.02,WNW,297,1.0,3.0,76,0.00,,,0.00,Wunderground v.1.15,2013-05-19 19:00:00,
2013-05-19 15:02:00,78.5,70.3,30.02,WNW,295,1.0,3.0,76,0.00,,,0.00,Wunderground v.1.15,2013-05-19 19:02:00,
2013-05-19 15:04:00,78.6,70.8,30.02,SE,143,1.0,5.0,77,0.00,,,0.00,Wunderground v.1.15,2013-05-19 19:04:00,
2013-05-19 15:05:00,78.6,70.8,30.02,WSW,250,2.0,5.0,77,0.00,,,0.00,Wunderground v.1.15,2013-05-19 19:05:00,
2013-05-19 15:07:00,78.5,70.3,30.02,SSW,198,0.0,5.0,76,0.00,,,0.00,Wunderground v.1.15,2013-05-19 19:07:00,
2013-05-19 15:09:00,78.5,70.3,30.02,West,273,0.0,5.0,76,0.00,,,0.00,Wunderground v.1.15,2013-05-19 19:09:00,
2013-05-19 15:10:00,78.6,70.8,30.02,NE,49,1.0,1.0,77,0.00,,,0.00,Wunderground v.1.15,2013-05-19 19:10:00,
2013-05-19 15:11:00,78.6,70.8,30.02,NNW,340,1.0,1.0,77,0.00,,,0.00,Wunderground v.1.15,2013-05-19 19:11:00,
2013-05-19 15:12:00,78.5,70.3,30.02,West,260,0.0,5.0,76,0.00,,,0.00,Wunderground v.1.15,2013-05-19 19:12:00,
2013-05-19 15:14:00,78.2,70.4,30.02,North,8,1.0,5.0,77,0.00,,,0.00,Wunderground v.1.15,2013-05-19 19:14:00,
2013-05-19 15:15:00,78.1,70.7,30.02,SE,125,1.0,5.0,78,0.00,,,0.00,Wunderground v.1.15,2013-05-19 19:15:00,
2013-05-19 15:16:00,78.0,70.6,30.02,West,273,1.0,5.0,78,0.00,,,0.00,Wunderground v.1.15,2013-05-19 19:16:00,
2013-05-19 15:17:00,77.8,70.4,30.02,East,79,2.0,5.0,78,0.00,,,0.00,Wunderground v.1.15,2013-05-19 19:17:00,
2013-05-19 15:20:00,77.4,70.0,30.02,SW,232,1.0,2.0,78,0.00,,,0.00,Wunderground v.1.15,2013-05-19 19:20:00,
2013-05-19 15:21:00,77.2,70.2,30.02,North,351,2.0,3.0,79,0.00,,,0.00,Wunderground v.1.15,2013-05-19 19:21:00,
2013-05-19 15:22:00,77.0,70.4,30.02,SW,228,1.0,3.0,80,0.00,,,0.00,Wunderground v.1.15,2013-05-19 19:22:00,
2013-05-19 15:25:00,76.7,70.4,30.01,NW,313,1.0,3.0,81,0.00,,,0.00,Wunderground v.1.15,2013-05-19 19:25:00,
2013-05-19 15:26:00,76.6,70.3,30.01,ENE,72,3.0,3.0,81,0.00,,,0.00,Wunderground v.1.15,2013-05-19 19:26:00,
2013-05-19 15:27:00,76.4,69.8,30.01,ENE,72,0.0,3.0,80,0.00,,,0.00,Wunderground v.1.15,2013-05-19 19:27:00,
2013-05-19 15:30:00,76.0,69.4,30.01,WNW,285,2.0,2.0,80,0.00,,,0.00,Wunderground v.1.15,2013-05-19 19:30:00,
2013-05-19 15:31:00,75.9,69.6,30.01,WNW,285,0.0,3.0,81,0.00,,,0.00,Wunderground v.1.15,2013-05-19 19:31:00,
2013-05-19 15:32:00,75.8,70.3,30.02,West,278,1.0,3.0,83,0.00,,,0.00,Wunderground v.1.15,2013-05-19 19:32:00,
2013-05-19 15:35:00,76.0,70.5,30.02,WSW,248,4.0,4.0,83,0.00,,,0.00,Wunderground v.1.15,2013-05-19 19:35:00,
2013-05-19 15:36:00,76.0,69.7,30.02,East,84,2.0,4.0,81,0.00,,,0.00,Wunderground v.1.15,2013-05-19 19:36:00,
2013-05-19 15:37:00,76.0,70.1,30.02,East,85,1.0,4.0,82,0.00,,,0.00,Wunderground v.1.15,2013-05-19 19:37:00,
2013-05-19 15:38:00,76.0,70.1,30.02,East,84,1.0,4.0,82,0.00,,,0.00,Wunderground v.1.15,2013-05-19 19:38:00,
2013-05-19 15:40:00,75.7,69.8,30.01,NE,50,2.0,2.0,82,0.00,,,0.00,Wunderground v.1.15,2013-05-19 19:40:00,
2013-05-19 15:41:00,75.7,69.8,30.01,SW,235,2.0,2.0,82,0.00,,,0.00,Wunderground v.1.15,2013-05-19 19:41:00,
2013-05-19 15:42:00,75.5,69.3,30.02,East,98,1.0,2.0,81,0.00,,,0.00,Wunderground v.1.15,2013-05-19 19:42:00,
2013-05-19 15:43:00,75.4,69.5,30.02,NW,316,3.0,3.0,82,0.00,,,0.00,Wunderground v.1.15,2013-05-19 19:43:00,
2013-05-19 15:46:00,75.0,68.8,30.02,East,89,1.0,3.0,81,0.00,,,0.00,Wunderground v.1.15,2013-05-19 19:46:00,
2013-05-19 15:47:00,75.0,69.5,30.02,East,89,0.0,3.0,83,0.00,,,0.00,Wunderground v.1.15,2013-05-19 19:47:00,
2013-05-19 15:48:00,74.8,69.3,30.02,SW,231,3.0,3.0,83,0.00,,,0.00,Wunderground v.1.15,2013-05-19 19:48:00,
2013-05-19 15:51:00,74.6,68.4,30.02,WSW,237,1.0,3.0,81,0.00,,,0.00,Wunderground v.1.15,2013-05-19 19:51:00,
2013-05-19 15:52:00,74.4,68.2,30.02,SW,215,1.0,3.0,81,0.00,,,0.00,Wunderground v.1.15,2013-05-19 19:52:00,
2013-05-19 15:53:00,74.4,68.2,30.02,WNW,287,4.0,4.0,81,0.00,,,0.00,Wunderground v.1.15,2013-05-19 19:53:00,
2013-05-19 15:56:00,74.3,68.4,30.02,East,81,1.0,4.0,82,0.00,,,0.00,Wunderground v.1.15,2013-05-19 19:56:00,
2013-05-19 15:57:00,74.2,68.3,30.02,NW,322,1.0,4.0,82,0.00,,,0.00,Wunderground v.1.15,2013-05-19 19:57:00,
2013-05-19 15:58:00,74.2,68.0,30.01,NW,318,1.0,4.0,81,0.00,,,0.00,Wunderground v.1.15,2013-05-19 19:58:00,
2013-05-19 16:01:00,74.1,68.3,30.02,West,273,0.0,4.0,82,0.00,,,0.00,Wunderground v.1.15,2013-05-19 20:01:00,
2013-05-19 16:02:00,74.0,68.2,30.02,ESE,110,0.0,4.0,82,0.00,,,0.00,Wunderground v.1.15,2013-05-19 20:02:00,
2013-05-19 16:04:00,74.0,68.5,30.02,East,85,1.0,4.0,83,0.00,,,0.00,Wunderground v.1.15,2013-05-19 20:04:00,
2013-05-19 16:06:00,73.9,68.8,30.02,ENE,65,1.0,4.0,84,0.00,,,0.00,Wunderground v.1.15,2013-05-19 20:06:00,
2013-05-19 16:07:00,73.9,68.8,30.02,NNW,338,1.0,4.0,84,0.00,,,0.00,Wunderground v.1.15,2013-05-19 20:07:00,
2013-05-19 16:08:00,73.9,68.8,30.02,North,360,0.0,4.0,84,0.00,,,0.00,Wunderground v.1.15,2013-05-19 20:08:00,
2013-05-19 16:09:00,73.9,68.8,30.01,ENE,58,0.0,4.0,84,0.00,,,0.00,Wunderground v.1.15,2013-05-19 20:09:00,
2013-05-19 16:11:00,73.9,68.8,30.01,SW,228,1.0,3.0,84,0.00,,,0.00,Wunderground v.1.15,2013-05-19 20:11:00,
2013-05-19 16:12:00,73.9,69.1,30.01,SW,219,1.0,3.0,85,0.00,,,0.00,Wunderground v.1.15,2013-05-19 20:12:00,
2013-05-19 16:13:00,73.9,69.1,30.01,WSW,240,1.0,3.0,85,0.00,,,0.00,Wunderground v.1.15,2013-05-19 20:13:00,
2013-05-19 16:15:00,73.9,69.1,30.01,SW,235,2.0,4.0,85,0.00,,,0.00,Wunderground v.1.15,2013-05-19 20:15:00,
2013-05-19 16:16:00,73.8,69.0,30.02,SW,235,1.0,4.0,85,0.00,,,0.00,Wunderground v.1.15,2013-05-19 20:16:00,
2013-05-19 16:17:00,73.8,69.0,30.02,WNW,302,0.0,4.0,85,0.00,,,0.00,Wunderground v.1.15,2013-05-19 20:17:00,
2013-05-19 16:18:00,73.7,68.9,30.02,NE,48,0.0,4.0,85,0.00,,,0.00,Wunderground v.1.15,2013-05-19 20:18:00,
2013-05-19 16:20:00,73.6,68.8,30.02,SW,232,1.0,1.0,85,0.00,,,0.00,Wunderground v.1.15,2013-05-19 20:20:00,
2013-05-19 16:21:00,73.6,69.2,30.02,SW,232,0.0,1.0,86,0.00,,,0.00,Wunderground v.1.15,2013-05-19 20:21:00,
2013-05-19 16:22:00,73.6,69.2,30.01,WNW,294,0.0,1.0,86,0.00,,,0.00,Wunderground v.1.15,2013-05-19 20:22:00,
2013-05-19 16:23:00,73.5,69.1,30.01,WNW,294,0.0,1.0,86,0.00,,,0.00,Wunderground v.1.15,2013-05-19 20:23:00,
2013-05-19 16:25:00,73.4,69.3,30.01,West,273,0.0,1.0,87,0.00,,,0.00,Wunderground v.1.15,2013-05-19 20:25:00,
2013-05-19 16:27:00,73.3,69.2,30.02,North,8,2.0,3.0,87,0.00,,,0.00,Wunderground v.1.15,2013-05-19 20:27:00,
2013-05-19 16:28:00,73.3,69.2,30.02,ESE,120,1.0,3.0,87,0.00,,,0.00,Wunderground v.1.15,2013-05-19 20:28:00,
2013-05-19 16:30:00,73.2,69.1,30.02,WSW,255,0.0,1.0,87,0.00,,,0.00,Wunderground v.1.15,2013-05-19 20:30:00,
2013-05-19 16:32:00,73.2,69.1,30.02,NNW,330,1.0,2.0,87,0.00,,,0.00,Wunderground v.1.15,2013-05-19 20:32:00,
2013-05-19 16:33:00,73.1,69.0,30.02,WNW,299,1.0,3.0,87,0.00,,,0.00,Wunderground v.1.15,2013-05-19 20:33:00,
2013-05-19 16:35:00,73.0,68.9,30.02,NNW,333,0.0,3.0,87,0.00,,,0.00,Wunderground v.1.15,2013-05-19 20:35:00,
2013-05-19 16:37:00,72.9,68.8,30.01,West,269,0.0,3.0,87,0.00,,,0.00,Wunderground v.1.15,2013-05-19 20:37:00,
2013-05-19 16:38:00,72.9,68.8,30.01,SSW,205,1.0,3.0,87,0.00,,,0.00,Wunderground v.1.15,2013-05-19 20:38:00,
2013-05-19 16:39:00,72.8,68.7,30.01,WSW,252,1.0,3.0,87,0.00,,,0.00,Wunderground v.1.15,2013-05-19 20:39:00,
2013-05-19 16:40:00,72.8,68.7,30.01,SW,218,0.0,1.0,87,0.00,,,0.00,Wunderground v.1.15,2013-05-19 20:40:00,
2013-05-19 16:42:00,72.6,68.5,30.01,SW,235,1.0,6.0,87,0.00,,,0.00,Wunderground v.1.15,2013-05-19 20:42:00,
2013-05-19 16:43:00,72.5,68.4,30.01,SSW,210,1.0,6.0,87,0.00,,,0.00,Wunderground v.1.15,2013-05-19 20:43:00,
2013-05-19 16:44:00,72.4,68.3,30.01,North,9,0.0,6.0,87,0.00,,,0.00,Wunderground v.1.15,2013-05-19 20:44:00,
2013-05-19 16:46:00,72.3,68.5,30.01,North,10,1.0,6.0,88,0.00,,,0.00,Wunderground v.1.15,2013-05-19 20:46:00,
2013-05-19 16:48:00,72.1,68.0,30.01,NE,41,1.0,7.0,87,0.00,,,0.00,Wunderground v.1.15,2013-05-19 20:48:00,
2013-05-19 16:50:00,71.9,68.2,30.01,NNE,18,1.0,1.0,88,0.00,,,0.00,Wunderground v.1.15,2013-05-19 20:50:00,
2013-05-19 16:51:00,71.8,68.1,30.01,WSW,250,4.0,4.0,88,0.00,,,0.01,Wunderground v.1.15,2013-05-19 20:51:00,
2013-05-19 16:53:00,71.5,68.1,30.01,SW,235,0.0,5.0,89,0.00,,,0.01,Wunderground v.1.15,2013-05-19 20:53:00,
2013-05-19 16:54:00,71.4,68.0,30.01,SW,235,1.0,5.0,89,0.00,,,0.01,Wunderground v.1.15,2013-05-19 20:54:00,
2013-05-19 16:55:00,71.3,67.9,30.02,SW,222,1.0,5.0,89,0.00,,,0.01,Wunderground v.1.15,2013-05-19 20:55:00,
2013-05-19 16:56:00,71.1,68.0,30.02,SSW,205,1.0,5.0,90,0.00,,,0.01,Wunderground v.1.15,2013-05-19 20:56:00,
2013-05-19 16:58:00,70.8,67.7,30.02,SW,225,1.0,5.0,90,0.09,,,0.02,Wunderground v.1.15,2013-05-19 20:58:00,
2013-05-19 16:59:00,70.7,67.9,30.02,SW,218,0.0,5.0,91,0.09,,,0.02,Wunderground v.1.15,2013-05-19 20:59:00,
2013-05-19 17:00:00,70.6,67.8,30.02,SW,218,0.0,1.0,91,0.09,,,0.02,Wunderground v.1.15,2013-05-19 21:00:00,
2013-05-19 17:01:00,70.6,67.8,30.02,SW,218,0.0,1.0,91,0.09,,,0.02,Wunderground v.1.15,2013-05-19 21:01:00,
2013-05-19 17:03:00,70.4,67.6,30.01,SW,218,0.0,1.0,91,0.09,,,0.02,Wunderground v.1.15,2013-05-19 21:03:00,
2013-05-19 17:04:00,70.4,67.6,30.01,SW,218,0.0,1.0,91,0.09,,,0.02,Wunderground v.1.15,2013-05-19 21:04:00,
2013-05-19 17:05:00,70.3,67.5,30.01,SW,218,1.0,1.0,91,0.08,,,0.02,Wunderground v.1.15,2013-05-19 21:05:00,
2013-05-19 17:06:00,70.2,67.8,30.01,SW,218,1.0,2.0,92,0.06,,,0.02,Wunderground v.1.15,2013-05-19 21:06:00,
2013-05-19 17:08:00,69.9,67.5,30.02,SSE,153,1.0,3.0,92,0.05,,,0.02,Wunderground v.1.15,2013-05-19 21:08:00,
2013-05-19 17:09:00,69.9,67.5,30.02,SSE,153,0.0,3.0,92,0.05,,,0.02,Wunderground v.1.15,2013-05-19 21:09:00,
2013-05-19 17:10:00,69.8,67.4,30.02,WSW,238,0.0,4.0,92,0.04,,,0.02,Wunderground v.1.15,2013-05-19 21:10:00,
2013-05-19 17:12:00,69.7,67.3,30.02,South,170,0.0,4.0,92,0.04,,,0.02,Wunderground v.1.15,2013-05-19 21:12:00,
2013-05-19 17:14:00,69.5,67.4,30.01,South,171,1.0,4.0,93,0.04,,,0.02,Wunderground v.1.15,2013-05-19 21:14:00,
2013-05-19 17:15:00,69.4,67.3,30.01,South,171,0.0,4.0,93,0.00,,,0.02,Wunderground v.1.15,2013-05-19 21:15:00,
2013-05-19 17:16:00,69.4,67.3,30.01,South,171,0.0,4.0,93,0.00,,,0.02,Wunderground v.1.15,2013-05-19 21:16:00,
2013-05-19 17:17:00,69.3,67.2,30.01,South,172,0.0,4.0,93,0.00,,,0.02,Wunderground v.1.15,2013-05-19 21:17:00,
2013-05-19 17:19:00,69.2,67.1,30.02,SW,229,3.0,5.0,93,0.00,,,0.02,Wunderground v.1.15,2013-05-19 21:19:00,
2013-05-19 17:21:00,69.0,66.9,30.02,SSW,203,1.0,4.0,93,0.00,,,0.02,Wunderground v.1.15,2013-05-19 21:21:00,
2013-05-19 17:22:00,68.8,66.7,30.02,WSW,248,1.0,4.0,93,0.00,,,0.02,Wunderground v.1.15,2013-05-19 21:22:00,
2013-05-19 17:24:00,68.7,66.6,30.02,SSW,203,0.0,4.0,93,0.00,,,0.03,Wunderground v.1.15,2013-05-19 21:24:00,
2013-05-19 17:26:00,68.6,66.8,30.02,West,270,1.0,4.0,94,0.00,,,0.03,Wunderground v.1.15,2013-05-19 21:26:00,
2013-05-19 17:27:00,68.5,66.4,30.02,SW,222,1.0,4.0,93,0.13,,,0.03,Wunderground v.1.15,2013-05-19 21:27:00,
2013-05-19 17:29:00,68.3,66.2,30.02,SW,229,0.0,4.0,93,0.13,,,0.04,Wunderground v.1.15,2013-05-19 21:29:00,
2013-05-19 17:31:00,68.2,66.1,30.02,SSW,212,1.0,2.0,93,0.13,,,0.04,Wunderground v.1.15,2013-05-19 21:31:00,
2013-05-19 17:32:00,67.9,65.5,30.02,West,276,1.0,5.0,92,0.12,,,0.04,Wunderground v.1.15,2013-05-19 21:32:00,
2013-05-19 17:34:00,67.7,65.3,30.02,WSW,243,1.0,5.0,92,0.09,,,0.04,Wunderground v.1.15,2013-05-19 21:34:00,
2013-05-19 17:36:00,67.6,65.2,30.02,WSW,243,4.0,5.0,92,0.07,,,0.04,Wunderground v.1.15,2013-05-19 21:36:00,
2013-05-19 17:38:00,67.4,65.3,30.02,SW,226,2.0,5.0,93,0.06,,,0.04,Wunderground v.1.15,2013-05-19 21:38:00,
2013-05-19 17:40:00,67.3,65.2,30.02,SW,228,0.0,2.0,93,0.05,,,0.04,Wunderground v.1.15,2013-05-19 21:40:00,
2013-05-19 17:41:00,67.3,65.2,30.02,SSW,207,1.0,2.0,93,0.04,,,0.04,Wunderground v.1.15,2013-05-19 21:41:00,
2013-05-19 17:43:00,67.2,65.1,30.02,SSW,207,0.0,2.0,93,0.04,,,0.04,Wunderground v.1.15,2013-05-19 21:43:00,
2013-05-19 17:45:00,67.2,65.4,30.02,SSW,207,0.0,2.0,94,0.00,,,0.04,Wunderground v.1.15,2013-05-19 21:45:00,
2013-05-19 17:46:00,67.2,65.4,30.02,SSW,204,1.0,2.0,94,0.00,,,0.04,Wunderground v.1.15,2013-05-19 21:46:00,
2013-05-19 17:47:00,67.2,65.4,30.02,SW,235,1.0,2.0,94,0.00,,,0.04,Wunderground v.1.15,2013-05-19 21:47:00,
2013-05-19 17:48:00,67.1,65.3,30.02,WSW,248,0.0,2.0,94,0.00,,,0.04,Wunderground v.1.15,2013-05-19 21:48:00,
2013-05-19 17:50:00,67.1,65.3,30.02,West,276,0.0,0.0,94,0.00,,,0.04,Wunderground v.1.15,2013-05-19 21:50:00,
2013-05-19 17:51:00,67.1,65.3,30.02,West,276,0.0,0.0,94,0.00,,,0.04,Wunderground v.1.15,2013-05-19 21:51:00,
2013-05-19 17:52:00,67.1,65.3,30.02,West,276,0.0,0.0,94,0.00,,,0.04,Wunderground v.1.15,2013-05-19 21:52:00,
2013-05-19 17:53:00,67.1,65.3,30.02,NNW,345,0.0,0.0,94,0.00,,,0.04,Wunderground v.1.15,2013-05-19 21:53:00,
2013-05-19 17:56:00,67.1,65.3,30.02,NNE,19,0.0,0.0,94,0.00,,,0.04,Wunderground v.1.15,2013-05-19 21:56:00,
2013-05-19 17:57:00,67.1,65.6,30.02,NNE,19,0.0,0.0,95,0.00,,,0.04,Wunderground v.1.15,2013-05-19 21:57:00,
2013-05-19 17:58:00,67.1,65.6,30.02,NNE,19,0.0,0.0,95,0.00,,,0.04,Wunderground v.1.15,2013-05-19 21:58:00,
2013-05-19 18:01:00,67.1,65.6,30.02,NNE,19,0.0,0.0,95,0.00,,,0.04,Wunderground v.1.15,2013-05-19 22:01:00,
2013-05-19 18:02:00,67.1,65.6,30.02,NE,49,0.0,0.0,95,0.00,,,0.04,Wunderground v.1.15,2013-05-19 22:02:00,
2013-05-19 18:03:00,67.1,65.6,30.01,NE,49,0.0,0.0,95,0.00,,,0.04,Wunderground v.1.15,2013-05-19 22:03:00,
2013-05-19 18:06:00,67.1,65.6,30.02,North,352,0.0,0.0,95,0.00,,,0.04,Wunderground v.1.15,2013-05-19 22:06:00,
2013-05-19 18:07:00,67.0,65.5,30.01,North,351,0.0,0.0,95,0.00,,,0.04,Wunderground v.1.15,2013-05-19 22:07:00,
2013-05-19 18:08:00,67.0,65.5,30.01,North,351,0.0,0.0,95,0.00,,,0.04,Wunderground v.1.15,2013-05-19 22:08:00,
2013-05-19 18:11:00,66.9,65.4,30.01,North,355,0.0,0.0,95,0.00,,,0.04,Wunderground v.1.15,2013-05-19 22:11:00,
2013-05-19 18:12:00,66.9,65.4,30.01,North,356,0.0,0.0,95,0.00,,,0.04,Wunderground v.1.15,2013-05-19 22:12:00,
2013-05-19 18:13:00,66.9,65.4,30.01,North,355,0.0,0.0,95,0.00,,,0.04,Wunderground v.1.15,2013-05-19 22:13:00,
2013-05-19 18:16:00,67.0,65.8,30.01,North,355,0.0,0.0,96,0.00,,,0.04,Wunderground v.1.15,2013-05-19 22:16:00,
2013-05-19 18:17:00,67.0,65.8,30.01,North,355,0.0,0.0,96,0.00,,,0.05,Wunderground v.1.15,2013-05-19 22:17:00,
2013-05-19 18:18:00,67.0,65.8,30.01,North,355,0.0,0.0,96,0.00,,,0.05,Wunderground v.1.15,2013-05-19 22:18:00,
2013-05-19 18:21:00,67.0,65.8,30.01,North,355,0.0,0.0,96,0.00,,,0.05,Wunderground v.1.15,2013-05-19 22:21:00,
2013-05-19 18:22:00,67.0,65.8,30.01,North,355,0.0,0.0,96,0.00,,,0.05,Wunderground v.1.15,2013-05-19 22:22:00,
2013-05-19 18:23:00,67.0,65.8,30.01,North,355,0.0,0.0,96,0.00,,,0.05,Wunderground v.1.15,2013-05-19 22:23:00,
2013-05-19 18:26:00,67.1,65.9,30.01,North,355,0.0,0.0,96,0.00,,,0.05,Wunderground v.1.15,2013-05-19 22:26:00,
2013-05-19 18:27:00,67.1,65.9,30.02,North,355,0.0,0.0,96,0.00,,,0.05,Wunderground v.1.15,2013-05-19 22:27:00,
2013-05-19 18:28:00,67.1,65.9,30.02,North,356,0.0,0.0,96,0.00,,,0.05,Wunderground v.1.15,2013-05-19 22:28:00,
2013-05-19 18:29:00,67.2,66.0,30.02,North,355,0.0,0.0,96,0.00,,,0.05,Wunderground v.1.15,2013-05-19 22:29:00,
2013-05-19 18:31:00,67.2,66.0,30.02,North,355,0.0,0.0,96,0.05,,,0.06,Wunderground v.1.15,2013-05-19 22:31:00,
2013-05-19 18:32:00,67.2,66.0,30.02,North,355,0.0,0.0,96,0.05,,,0.06,Wunderground v.1.15,2013-05-19 22:32:00,
2013-05-19 18:33:00,67.2,66.0,30.02,North,355,0.0,0.0,96,0.05,,,0.06,Wunderground v.1.15,2013-05-19 22:33:00,
2013-05-19 18:34:00,67.2,66.0,30.02,North,355,0.0,0.0,96,0.05,,,0.06,Wunderground v.1.15,2013-05-19 22:34:00,
2013-05-19 18:37:00,67.3,66.4,30.02,North,355,0.0,0.0,97,0.05,,,0.06,Wunderground v.1.15,2013-05-19 22:37:00,
2013-05-19 18:38:00,67.3,66.4,30.02,North,355,0.0,0.0,97,0.05,,,0.06,Wunderground v.1.15,2013-05-19 22:38:00,
2013-05-19 18:39:00,67.3,66.1,30.02,North,355,0.0,0.0,96,0.05,,,0.06,Wunderground v.1.15,2013-05-19 22:39:00,
2013-05-19 18:40:00,67.3,66.1,30.02,North,355,0.0,0.0,96,0.05,,,0.06,Wunderground v.1.15,2013-05-19 22:40:00,
2013-05-19 18:42:00,67.3,66.4,30.02,North,355,0.0,0.0,97,0.05,,,0.06,Wunderground v.1.15,2013-05-19 22:42:00,
2013-05-19 18:43:00,67.4,66.5,30.02,North,355,0.0,0.0,97,0.05,,,0.06,Wunderground v.1.15,2013-05-19 22:43:00,
2013-05-19 18:44:00,67.4,66.5,30.02,North,356,0.0,0.0,97,0.04,,,0.06,Wunderground v.1.15,2013-05-19 22:44:00,
2013-05-19 18:45:00,67.4,66.5,30.02,North,356,0.0,0.0,97,0.04,,,0.06,Wunderground v.1.15,2013-05-19 22:45:00,
2013-05-19 18:47:00,67.5,66.6,30.03,North,355,0.0,0.0,97,0.00,,,0.06,Wunderground v.1.15,2013-05-19 22:47:00,
2013-05-19 18:48:00,67.5,66.6,30.03,North,355,0.0,0.0,97,0.00,,,0.06,Wunderground v.1.15,2013-05-19 22:48:00,
2013-05-19 18:49:00,67.5,66.6,30.02,North,355,0.0,0.0,97,0.00,,,0.06,Wunderground v.1.15,2013-05-19 22:49:00,
2013-05-19 18:50:00,67.5,66.6,30.02,North,355,0.0,0.0,97,0.00,,,0.06,Wunderground v.1.15,2013-05-19 22:50:00,
2013-05-19 18:52:00,67.6,66.7,30.03,North,355,0.0,0.0,97,0.00,,,0.06,Wunderground v.1.15,2013-05-19 22:52:00,
2013-05-19 18:53:00,67.6,66.7,30.03,North,355,0.0,0.0,97,0.00,,,0.06,Wunderground v.1.15,2013-05-19 22:53:00,
2013-05-19 18:54:00,67.6,66.7,30.03,North,355,0.0,0.0,97,0.00,,,0.06,Wunderground v.1.15,2013-05-19 22:54:00,
2013-05-19 18:55:00,67.5,66.6,30.02,North,355,0.0,0.0,97,0.00,,,0.06,Wunderground v.1.15,2013-05-19 22:55:00,
2013-05-19 18:57:00,67.6,66.7,30.03,North,355,0.0,0.0,97,0.00,,,0.06,Wunderground v.1.15,2013-05-19 22:57:00,
2013-05-19 18:58:00,67.5,66.6,30.02,North,355,0.0,0.0,97,0.00,,,0.06,Wunderground v.1.15,2013-05-19 22:58:00,
2013-05-19 18:59:00,67.5,66.6,30.02,North,355,0.0,0.0,97,0.00,,,0.06,Wunderground v.1.15,2013-05-19 22:59:00,
2013-05-19 19:00:00,67.5,66.6,30.02,North,355,0.0,0.0,97,0.00,,,0.06,Wunderground v.1.15,2013-05-19 23:00:00,
2013-05-19 19:02:00,67.5,66.6,30.02,North,355,0.0,0.0,97,0.00,,,0.06,Wunderground v.1.15,2013-05-19 23:02:00,
2013-05-19 19:04:00,67.5,66.6,30.02,North,355,0.0,0.0,97,0.00,,,0.06,Wunderground v.1.15,2013-05-19 23:04:00,
2013-05-19 19:06:00,67.5,66.6,30.02,North,355,0.0,0.0,97,0.00,,,0.06,Wunderground v.1.15,2013-05-19 23:06:00,
2013-05-19 19:07:00,67.5,66.6,30.02,North,356,0.0,0.0,97,0.00,,,0.06,Wunderground v.1.15,2013-05-19 23:07:00,
2013-05-19 19:09:00,67.6,66.7,30.03,North,356,0.0,0.0,97,0.00,,,0.06,Wunderground v.1.15,2013-05-19 23:09:00,
2013-05-19 19:10:00,67.5,66.6,30.03,North,355,0.0,0.0,97,0.00,,,0.06,Wunderground v.1.15,2013-05-19 23:10:00,
2013-05-19 19:11:00,67.6,66.7,30.03,North,356,0.0,0.0,97,0.00,,,0.06,Wunderground v.1.15,2013-05-19 23:11:00,
2013-05-19 19:12:00,67.6,66.7,30.03,North,356,0.0,0.0,97,0.00,,,0.06,Wunderground v.1.15,2013-05-19 23:12:00,
2013-05-19 19:14:00,67.6,66.7,30.02,North,355,0.0,0.0,97,0.00,,,0.06,Wunderground v.1.15,2013-05-19 23:14:00,
2013-05-19 19:15:00,67.6,66.7,30.02,North,355,0.0,0.0,97,0.00,,,0.06,Wunderground v.1.15,2013-05-19 23:15:00,
2013-05-19 19:16:00,67.6,66.7,30.03,North,355,0.0,0.0,97,0.00,,,0.06,Wunderground v.1.15,2013-05-19 23:16:00,
2013-05-19 19:18:00,67.6,66.7,30.02,NNW,347,1.0,1.0,97,0.00,,,0.06,Wunderground v.1.15,2013-05-19 23:18:00,
2013-05-19 19:19:00,67.5,66.6,30.02,NNW,347,0.0,1.0,97,0.00,,,0.06,Wunderground v.1.15,2013-05-19 23:19:00,
2013-05-19 19:20:00,67.5,66.6,30.02,NNW,347,0.0,0.0,97,0.00,,,0.06,Wunderground v.1.15,2013-05-19 23:20:00,
2013-05-19 19:21:00,67.6,66.7,30.02,NNW,347,0.0,0.0,97,0.00,,,0.06,Wunderground v.1.15,2013-05-19 23:21:00,
2013-05-19 19:23:00,67.5,66.6,30.02,NNW,347,0.0,0.0,97,0.00,,,0.06,Wunderground v.1.15,2013-05-19 23:23:00,
2013-05-19 19:25:00,67.5,66.6,30.02,NNW,347,0.0,0.0,97,0.00,,,0.06,Wunderground v.1.15,2013-05-19 23:25:00,
2013-05-19 19:26:00,67.5,66.6,30.02,NNW,347,0.0,0.0,97,0.00,,,0.06,Wunderground v.1.15,2013-05-19 23:26:00,
2013-05-19 19:28:00,67.5,66.6,30.02,NNW,347,0.0,0.0,97,0.00,,,0.06,Wunderground v.1.15,2013-05-19 23:28:00,
2013-05-19 19:30:00,67.6,66.7,30.02,NNW,347,0.0,0.0,97,0.00,,,0.06,Wunderground v.1.15,2013-05-19 23:30:00,
2013-05-19 19:31:00,67.5,66.6,30.02,NNW,347,0.0,0.0,97,0.00,,,0.06,Wunderground v.1.15,2013-05-19 23:31:00,
2013-05-19 19:32:00,67.5,66.6,30.03,NNW,347,0.0,0.0,97,0.00,,,0.06,Wunderground v.1.15,2013-05-19 23:32:00,
2013-05-19 19:33:00,67.6,66.7,30.03,WSW,255,0.0,1.0,97,0.00,,,0.06,Wunderground v.1.15,2013-05-19 23:33:00,
2013-05-19 19:35:00,67.6,66.7,30.03,WSW,255,0.0,1.0,97,0.00,,,0.06,Wunderground v.1.15,2013-05-19 23:35:00,
2013-05-19 19:36:00,67.6,66.7,30.02,WSW,254,0.0,1.0,97,0.00,,,0.06,Wunderground v.1.15,2013-05-19 23:36:00,
2013-05-19 19:37:00,67.6,66.7,30.02,WSW,254,0.0,1.0,97,0.00,,,0.06,Wunderground v.1.15,2013-05-19 23:37:00,
2013-05-19 19:38:00,67.6,66.7,30.02,WSW,255,0.0,1.0,97,0.00,,,0.06,Wunderground v.1.15,2013-05-19 23:38:00,
2013-05-19 19:40:00,67.6,66.7,30.02,WSW,255,0.0,0.0,97,0.00,,,0.06,Wunderground v.1.15,2013-05-19 23:40:00,
2013-05-19 19:41:00,67.6,66.7,30.02,WSW,255,0.0,0.0,97,0.00,,,0.06,Wunderground v.1.15,2013-05-19 23:41:00,
2013-05-19 19:42:00,67.6,66.7,30.02,WSW,255,0.0,0.0,97,0.00,,,0.06,Wunderground v.1.15,2013-05-19 23:42:00,
2013-05-19 19:44:00,67.6,66.7,30.02,WSW,255,0.0,0.0,97,0.00,,,0.06,Wunderground v.1.15,2013-05-19 23:44:00,
2013-05-19 19:45:00,67.6,66.7,30.02,WSW,255,0.0,0.0,97,0.00,,,0.06,Wunderground v.1.15,2013-05-19 23:45:00,
2013-05-19 19:46:00,67.6,66.7,30.02,WSW,255,0.0,0.0,97,0.00,,,0.06,Wunderground v.1.15,2013-05-19 23:46:00,
2013-05-19 19:48:00,67.6,66.7,30.02,WSW,254,0.0,0.0,97,0.00,,,0.06,Wunderground v.1.15,2013-05-19 23:48:00,
2013-05-19 19:49:00,67.6,66.7,30.02,WSW,255,0.0,0.0,97,0.00,,,0.06,Wunderground v.1.15,2013-05-19 23:49:00,
2013-05-19 19:50:00,67.6,66.7,30.02,WSW,255,0.0,0.0,97,0.00,,,0.06,Wunderground v.1.15,2013-05-19 23:50:00,
2013-05-19 19:51:00,67.6,66.7,30.02,WSW,255,0.0,0.0,97,0.00,,,0.06,Wunderground v.1.15,2013-05-19 23:51:00,
2013-05-19 19:52:00,67.6,66.7,30.02,WSW,254,0.0,0.0,97,0.00,,,0.06,Wunderground v.1.15,2013-05-19 23:52:00,
2013-05-19 19:53:00,67.6,66.7,30.02,WSW,254,0.0,0.0,97,0.00,,,0.06,Wunderground v.1.15,2013-05-19 23:53:00,
2013-05-19 19:54:00,67.6,66.7,30.02,WSW,255,0.0,0.0,97,0.00,,,0.06,Wunderground v.1.15,2013-05-19 23:54:00,
2013-05-19 19:55:00,67.6,66.7,30.02,WSW,255,0.0,0.0,97,0.00,,,0.06,Wunderground v.1.15,2013-05-19 23:55:00,
2013-05-19 19:56:00,67.6,66.7,30.02,WSW,255,0.0,0.0,97,0.00,,,0.06,Wunderground v.1.15,2013-05-19 23:56:00,
2013-05-19 19:57:00,67.6,66.7,30.02,WSW,255,0.0,0.0,97,0.00,,,0.06,Wunderground v.1.15,2013-05-19 23:57:00,
2013-05-19 19:59:00,67.6,66.7,30.02,WSW,254,0.0,0.0,97,0.00,,,0.06,Wunderground v.1.15,2013-05-19 23:59:00,
2013-05-19 20:00:00,67.6,66.7,30.02,WSW,255,0.0,0.0,97,0.00,,,0.06,Wunderground v.1.15,2013-05-20 00:00:00,
2013-05-19 20:01:00,67.6,66.7,30.02,WSW,255,0.0,0.0,97,0.00,,,0.06,Wunderground v.1.15,2013-05-20 00:01:00,
2013-05-19 20:02:00,67.6,66.7,30.02,WSW,254,0.0,0.0,97,0.00,,,0.06,Wunderground v.1.15,2013-05-20 00:02:00,
2013-05-19 20:04:00,67.6,66.7,30.02,WSW,255,0.0,0.0,97,0.00,,,0.06,Wunderground v.1.15,2013-05-20 00:04:00,
2013-05-19 20:05:00,67.6,66.7,30.02,WSW,255,0.0,0.0,97,0.00,,,0.06,Wunderground v.1.15,2013-05-20 00:05:00,
2013-05-19 20:06:00,67.5,66.6,30.02,WSW,255,0.0,0.0,97,0.00,,,0.06,Wunderground v.1.15,2013-05-20 00:06:00,
2013-05-19 20:07:00,67.6,66.7,30.02,WSW,254,0.0,0.0,97,0.00,,,0.06,Wunderground v.1.15,2013-05-20 00:07:00,
2013-05-19 20:09:00,67.5,66.6,30.02,WSW,255,0.0,0.0,97,0.00,,,0.06,Wunderground v.1.15,2013-05-20 00:09:00,
2013-05-19 20:10:00,67.5,66.6,30.02,West,263,1.0,1.0,97,0.00,,,0.06,Wunderground v.1.15,2013-05-20 00:10:00,
2013-05-19 20:11:00,67.5,66.6,30.02,West,263,0.0,1.0,97,0.00,,,0.06,Wunderground v.1.15,2013-05-20 00:11:00,
2013-05-19 20:13:00,67.6,66.7,30.02,SW,231,0.0,1.0,97,0.00,,,0.06,Wunderground v.1.15,2013-05-20 00:13:00,
2013-05-19 20:14:00,67.5,66.6,30.02,SW,231,0.0,1.0,97,0.00,,,0.06,Wunderground v.1.15,2013-05-20 00:14:00,
2013-05-19 20:15:00,67.6,66.7,30.02,SW,231,1.0,1.0,97,0.00,,,0.06,Wunderground v.1.15,2013-05-20 00:15:00,
2013-05-19 20:16:00,67.6,66.7,30.02,SW,231,0.0,1.0,97,0.00,,,0.06,Wunderground v.1.15,2013-05-20 00:16:00,
2013-05-19 20:18:00,67.6,66.7,30.02,SW,231,0.0,1.0,97,0.00,,,0.06,Wunderground v.1.15,2013-05-20 00:18:00,
2013-05-19 20:19:00,67.5,66.6,30.02,SW,231,0.0,1.0,97,0.00,,,0.06,Wunderground v.1.15,2013-05-20 00:19:00,
2013-05-19 20:21:00,67.6,66.7,30.02,SW,231,0.0,0.0,97,0.00,,,0.06,Wunderground v.1.15,2013-05-20 00:21:00,
2013-05-19 20:23:00,67.6,67.0,30.02,SW,231,0.0,0.0,98,0.00,,,0.06,Wunderground v.1.15,2013-05-20 00:23:00,
2013-05-19 20:24:00,67.6,66.7,30.02,SW,231,0.0,0.0,97,0.00,,,0.06,Wunderground v.1.15,2013-05-20 00:24:00,
2013-05-19 20:26:00,67.6,67.0,30.02,SW,231,0.0,0.0,98,0.00,,,0.06,Wunderground v.1.15,2013-05-20 00:26:00,
2013-05-19 20:27:00,67.6,67.0,30.02,SW,231,0.0,0.0,98,0.00,,,0.06,Wunderground v.1.15,2013-05-20 00:27:00,
2013-05-19 20:29:00,67.6,67.0,30.02,SW,231,0.0,0.0,98,0.00,,,0.06,Wunderground v.1.15,2013-05-20 00:29:00,
2013-05-19 20:31:00,67.6,67.0,30.02,SW,231,0.0,1.0,98,0.00,,,0.06,Wunderground v.1.15,2013-05-20 00:31:00,
2013-05-19 20:32:00,67.6,67.0,30.02,SW,231,0.0,1.0,98,0.00,,,0.06,Wunderground v.1.15,2013-05-20 00:32:00,
2013-05-19 20:34:00,67.6,67.0,30.02,SW,231,0.0,1.0,98,0.00,,,0.06,Wunderground v.1.15,2013-05-20 00:34:00,
2013-05-19 20:35:00,67.6,67.0,30.02,SW,231,0.0,1.0,98,0.00,,,0.06,Wunderground v.1.15,2013-05-20 00:35:00,
2013-05-19 20:36:00,67.6,67.0,30.01,SW,231,0.0,1.0,98,0.00,,,0.06,Wunderground v.1.15,2013-05-20 00:36:00,
2013-05-19 20:37:00,67.6,67.0,30.02,West,278,1.0,1.0,98,0.00,,,0.06,Wunderground v.1.15,2013-05-20 00:37:00,
2013-05-19 20:39:00,67.7,67.1,30.01,West,271,0.0,1.0,98,0.00,,,0.06,Wunderground v.1.15,2013-05-20 00:39:00,
2013-05-19 20:40:00,67.7,67.1,30.01,West,271,0.0,0.0,98,0.00,,,0.06,Wunderground v.1.15,2013-05-20 00:40:00,
2013-05-19 20:41:00,67.6,67.0,30.01,West,271,0.0,0.0,98,0.00,,,0.06,Wunderground v.1.15,2013-05-20 00:41:00,
2013-05-19 20:42:00,67.6,67.0,30.01,West,271,0.0,1.0,98,0.00,,,0.06,Wunderground v.1.15,2013-05-20 00:42:00,
2013-05-19 20:43:00,67.6,67.0,30.01,West,271,0.0,1.0,98,0.00,,,0.06,Wunderground v.1.15,2013-05-20 00:43:00,
2013-05-19 20:44:00,67.6,67.0,30.02,West,271,0.0,1.0,98,0.00,,,0.06,Wunderground v.1.15,2013-05-20 00:44:00,
2013-05-19 20:45:00,67.6,67.0,30.02,West,271,0.0,1.0,98,0.00,,,0.06,Wunderground v.1.15,2013-05-20 00:45:00,
2013-05-19 20:46:00,67.5,66.6,30.02,West,271,0.0,1.0,97,0.00,,,0.06,Wunderground v.1.15,2013-05-20 00:46:00,
2013-05-19 20:47:00,67.5,66.6,30.02,West,271,0.0,1.0,97,0.00,,,0.06,Wunderground v.1.15,2013-05-20 00:47:00,
2013-05-19 20:48:00,67.5,66.6,30.02,West,271,0.0,1.0,97,0.00,,,0.06,Wunderground v.1.15,2013-05-20 00:48:00,
2013-05-19 20:49:00,67.5,66.6,30.02,West,271,0.0,1.0,97,0.00,,,0.06,Wunderground v.1.15,2013-05-20 00:49:00,
2013-05-19 20:50:00,67.5,66.6,30.02,West,271,0.0,0.0,97,0.00,,,0.06,Wunderground v.1.15,2013-05-20 00:50:00,
2013-05-19 20:51:00,67.5,66.9,30.02,West,271,0.0,0.0,98,0.00,,,0.06,Wunderground v.1.15,2013-05-20 00:51:00,
2013-05-19 20:52:00,67.5,66.9,30.02,West,271,0.0,0.0,98,0.00,,,0.06,Wunderground v.1.15,2013-05-20 00:52:00,
2013-05-19 20:53:00,67.5,66.9,30.02,West,271,0.0,0.0,98,0.00,,,0.06,Wunderground v.1.15,2013-05-20 00:53:00,
2013-05-19 20:55:00,67.5,66.9,30.02,West,271,0.0,0.0,98,0.00,,,0.06,Wunderground v.1.15,2013-05-20 00:55:00,
2013-05-19 20:57:00,67.5,66.9,30.02,West,271,0.0,0.0,98,0.00,,,0.06,Wunderground v.1.15,2013-05-20 00:57:00,
2013-05-19 20:58:00,67.4,66.8,30.02,West,271,0.0,0.0,98,0.00,,,0.06,Wunderground v.1.15,2013-05-20 00:58:00,
2013-05-19 21:00:00,67.5,66.9,30.02,West,271,0.0,0.0,98,0.00,,,0.06,Wunderground v.1.15,2013-05-20 01:00:00,
2013-05-19 21:02:00,67.4,66.8,30.02,West,271,0.0,0.0,98,0.00,,,0.06,Wunderground v.1.15,2013-05-20 01:02:00,
2013-05-19 21:03:00,67.4,66.8,30.02,West,271,0.0,0.0,98,0.00,,,0.06,Wunderground v.1.15,2013-05-20 01:03:00,
2013-05-19 21:05:00,67.4,66.8,30.02,West,271,0.0,0.0,98,0.00,,,0.06,Wunderground v.1.15,2013-05-20 01:05:00,
2013-05-19 21:07:00,67.4,66.8,30.02,West,271,0.0,0.0,98,0.00,,,0.06,Wunderground v.1.15,2013-05-20 01:07:00,
2013-05-19 21:08:00,67.4,66.8,30.03,West,271,0.0,0.0,98,0.00,,,0.06,Wunderground v.1.15,2013-05-20 01:08:00,
2013-05-19 21:10:00,67.4,66.8,30.03,West,271,0.0,0.0,98,0.00,,,0.06,Wunderground v.1.15,2013-05-20 01:10:00,
2013-05-19 21:13:00,67.4,66.8,30.03,West,271,0.0,0.0,98,0.00,,,0.06,Wunderground v.1.15,2013-05-20 01:13:00,
2013-05-19 21:14:00,67.5,66.9,30.03,West,271,0.0,0.0,98,0.00,,,0.06,Wunderground v.1.15,2013-05-20 01:14:00,
2013-05-19 21:15:00,67.4,66.8,30.03,West,271,0.0,0.0,98,0.00,,,0.06,Wunderground v.1.15,2013-05-20 01:15:00,
2013-05-19 21:16:00,67.5,66.9,30.03,West,271,0.0,0.0,98,0.00,,,0.06,Wunderground v.1.15,2013-05-20 01:16:00,
2013-05-19 21:18:00,67.5,66.9,30.03,West,271,0.0,0.0,98,0.00,,,0.06,Wunderground v.1.15,2013-05-20 01:18:00,
2013-05-19 21:19:00,67.5,66.9,30.03,West,271,0.0,0.0,98,0.00,,,0.06,Wunderground v.1.15,2013-05-20 01:19:00,
2013-05-19 21:20:00,67.5,66.9,30.03,West,271,0.0,0.0,98,0.00,,,0.06,Wunderground v.1.15,2013-05-20 01:20:00,
2013-05-19 21:21:00,67.5,66.9,30.03,West,271,0.0,0.0,98,0.00,,,0.06,Wunderground v.1.15,2013-05-20 01:21:00,
2013-05-19 21:23:00,67.6,67.0,30.03,West,271,0.0,0.0,98,0.00,,,0.06,Wunderground v.1.15,2013-05-20 01:23:00,
2013-05-19 21:24:00,67.5,66.9,30.03,West,271,0.0,0.0,98,0.00,,,0.06,Wunderground v.1.15,2013-05-20 01:24:00,
2013-05-19 21:25:00,67.6,67.0,30.03,West,271,0.0,0.0,98,0.00,,,0.06,Wunderground v.1.15,2013-05-20 01:25:00,
2013-05-19 21:26:00,67.5,66.9,30.03,West,271,0.0,0.0,98,0.00,,,0.06,Wunderground v.1.15,2013-05-20 01:26:00,
2013-05-19 21:28:00,67.6,67.0,30.03,West,271,0.0,0.0,98,0.00,,,0.06,Wunderground v.1.15,2013-05-20 01:28:00,
2013-05-19 21:29:00,67.5,66.9,30.03,West,271,0.0,0.0,98,0.00,,,0.06,Wunderground v.1.15,2013-05-20 01:29:00,
2013-05-19 21:30:00,67.5,66.9,30.04,West,271,0.0,0.0,98,0.00,,,0.06,Wunderground v.1.15,2013-05-20 01:30:00,
2013-05-19 21:31:00,67.5,66.9,30.04,West,271,0.0,0.0,98,0.00,,,0.06,Wunderground v.1.15,2013-05-20 01:31:00,
2013-05-19 21:34:00,67.4,66.8,30.04,West,274,0.0,0.0,98,0.00,,,0.06,Wunderground v.1.15,2013-05-20 01:34:00,
2013-05-19 21:35:00,67.4,66.8,30.04,West,274,0.0,0.0,98,0.00,,,0.06,Wunderground v.1.15,2013-05-20 01:35:00,
2013-05-19 21:36:00,67.4,66.8,30.04,West,274,0.0,0.0,98,0.00,,,0.06,Wunderground v.1.15,2013-05-20 01:36:00,
2013-05-19 21:39:00,67.3,66.7,30.04,West,274,0.0,0.0,98,0.00,,,0.06,Wunderground v.1.15,2013-05-20 01:39:00,
2013-05-19 21:40:00,67.3,66.7,30.05,West,274,0.0,0.0,98,0.00,,,0.06,Wunderground v.1.15,2013-05-20 01:40:00,
2013-05-19 21:41:00,67.3,66.7,30.05,West,274,0.0,0.0,98,0.00,,,0.06,Wunderground v.1.15,2013-05-20 01:41:00,
2013-05-19 21:45:00,67.3,66.7,30.05,West,274,0.0,0.0,98,0.00,,,0.06,Wunderground v.1.15,2013-05-20 01:45:00,
2013-05-19 21:46:00,67.3,66.7,30.05,West,274,0.0,0.0,98,0.00,,,0.06,Wunderground v.1.15,2013-05-20 01:46:00,
2013-05-19 21:50:00,67.2,66.6,30.05,West,274,0.0,0.0,98,0.00,,,0.06,Wunderground v.1.15,2013-05-20 01:50:00,
2013-05-19 21:51:00,67.3,66.7,30.05,West,274,0.0,0.0,98,0.00,,,0.06,Wunderground v.1.15,2013-05-20 01:51:00,
2013-05-19 21:55:00,67.3,66.7,30.05,West,274,0.0,0.0,98,0.00,,,0.06,Wunderground v.1.15,2013-05-20 01:55:00,
2013-05-19 21:56:00,67.3,66.7,30.05,West,274,0.0,0.0,98,0.00,,,0.06,Wunderground v.1.15,2013-05-20 01:56:00,
2013-05-19 22:00:00,67.3,66.7,30.05,West,274,0.0,0.0,98,0.00,,,0.06,Wunderground v.1.15,2013-05-20 02:00:00,
2013-05-19 22:01:00,67.4,66.8,30.05,West,274,0.0,0.0,98,0.00,,,0.06,Wunderground v.1.15,2013-05-20 02:01:00,
2013-05-19 22:02:00,67.3,66.7,30.05,West,274,0.0,0.0,98,0.00,,,0.06,Wunderground v.1.15,2013-05-20 02:02:00,
2013-05-19 22:05:00,67.3,66.7,30.05,West,274,0.0,0.0,98,0.00,,,0.06,Wunderground v.1.15,2013-05-20 02:05:00,
2013-05-19 22:06:00,67.3,66.7,30.05,West,274,0.0,0.0,98,0.00,,,0.06,Wunderground v.1.15,2013-05-20 02:06:00,
2013-05-19 22:07:00,67.3,66.7,30.05,West,274,0.0,0.0,98,0.00,,,0.06,Wunderground v.1.15,2013-05-20 02:07:00,
2013-05-19 22:10:00,67.3,66.7,30.06,West,274,0.0,0.0,98,0.00,,,0.06,Wunderground v.1.15,2013-05-20 02:10:00,
2013-05-19 22:11:00,67.4,66.8,30.05,West,274,0.0,0.0,98,0.00,,,0.06,Wunderground v.1.15,2013-05-20 02:11:00,
2013-05-19 22:12:00,67.3,66.7,30.05,West,274,0.0,0.0,98,0.00,,,0.06,Wunderground v.1.15,2013-05-20 02:12:00,
2013-05-19 22:15:00,67.3,66.7,30.06,SW,229,0.0,1.0,98,0.00,,,0.06,Wunderground v.1.15,2013-05-20 02:15:00,
2013-05-19 22:17:00,67.3,66.7,30.06,SW,229,0.0,1.0,98,0.00,,,0.06,Wunderground v.1.15,2013-05-20 02:17:00,
2013-05-19 22:20:00,67.3,66.7,30.06,SW,221,0.0,0.0,98,0.00,,,0.06,Wunderground v.1.15,2013-05-20 02:20:00,
2013-05-19 22:22:00,67.3,66.7,30.06,SW,221,0.0,0.0,98,0.00,,,0.06,Wunderground v.1.15,2013-05-20 02:22:00,
2013-05-19 22:26:00,67.3,66.7,30.06,SW,221,0.0,0.0,98,0.00,,,0.06,Wunderground v.1.15,2013-05-20 02:26:00,
2013-05-19 22:27:00,67.4,66.8,30.06,SW,221,0.0,0.0,98,0.00,,,0.06,Wunderground v.1.15,2013-05-20 02:27:00,
2013-05-19 22:28:00,67.4,66.8,30.06,SW,221,0.0,0.0,98,0.00,,,0.06,Wunderground v.1.15,2013-05-20 02:28:00,
2013-05-19 22:31:00,67.4,66.8,30.06,SW,221,0.0,0.0,98,0.00,,,0.06,Wunderground v.1.15,2013-05-20 02:31:00,
2013-05-19 22:32:00,67.3,66.7,30.06,SW,221,0.0,0.0,98,0.00,,,0.06,Wunderground v.1.15,2013-05-20 02:32:00,
2013-05-19 22:33:00,67.3,66.7,30.06,SW,221,0.0,0.0,98,0.00,,,0.06,Wunderground v.1.15,2013-05-20 02:33:00,
2013-05-19 22:36:00,67.3,66.7,30.06,SW,221,0.0,0.0,98,0.00,,,0.06,Wunderground v.1.15,2013-05-20 02:36:00,
2013-05-19 22:37:00,67.3,66.7,30.06,SW,221,0.0,0.0,98,0.00,,,0.06,Wunderground v.1.15,2013-05-20 02:37:00,
2013-05-19 22:38:00,67.3,66.7,30.06,SW,221,0.0,0.0,98,0.00,,,0.06,Wunderground v.1.15,2013-05-20 02:38:00,
2013-05-19 22:41:00,67.3,66.7,30.06,SW,221,0.0,0.0,98,0.00,,,0.06,Wunderground v.1.15,2013-05-20 02:41:00,
2013-05-19 22:42:00,67.3,66.7,30.06,SW,221,0.0,0.0,98,0.00,,,0.06,Wunderground v.1.15,2013-05-20 02:42:00,
2013-05-19 22:43:00,67.3,66.7,30.06,SW,221,0.0,0.0,98,0.00,,,0.06,Wunderground v.1.15,2013-05-20 02:43:00,
2013-05-19 22:44:00,67.2,66.6,30.06,SW,221,0.0,0.0,98,0.00,,,0.06,Wunderground v.1.15,2013-05-20 02:44:00,
2013-05-19 22:46:00,67.3,66.7,30.06,SW,221,0.0,0.0,98,0.00,,,0.06,Wunderground v.1.15,2013-05-20 02:46:00,
2013-05-19 22:47:00,67.3,66.7,30.06,SW,221,0.0,0.0,98,0.00,,,0.06,Wunderground v.1.15,2013-05-20 02:47:00,
2013-05-19 22:48:00,67.3,66.7,30.06,SW,221,0.0,0.0,98,0.00,,,0.06,Wunderground v.1.15,2013-05-20 02:48:00,
2013-05-19 22:49:00,67.2,66.6,30.06,SW,221,0.0,0.0,98,0.00,,,0.06,Wunderground v.1.15,2013-05-20 02:49:00,
2013-05-19 22:51:00,67.2,66.6,30.06,SW,221,0.0,0.0,98,0.00,,,0.06,Wunderground v.1.15,2013-05-20 02:51:00,
2013-05-19 22:52:00,67.3,66.7,30.06,SW,220,0.0,0.0,98,0.00,,,0.06,Wunderground v.1.15,2013-05-20 02:52:00,
2013-05-19 22:53:00,67.2,66.6,30.06,SW,221,0.0,0.0,98,0.00,,,0.06,Wunderground v.1.15,2013-05-20 02:53:00,
2013-05-19 22:54:00,67.2,66.6,30.06,SW,221,0.0,0.0,98,0.00,,,0.06,Wunderground v.1.15,2013-05-20 02:54:00,
2013-05-19 22:56:00,67.2,66.6,30.06,SW,221,0.0,0.0,98,0.00,,,0.06,Wunderground v.1.15,2013-05-20 02:56:00,
2013-05-19 22:58:00,67.1,66.5,30.06,SW,221,0.0,0.0,98,0.00,,,0.06,Wunderground v.1.15,2013-05-20 02:58:00,
2013-05-19 22:59:00,67.1,66.5,30.06,SW,221,0.0,0.0,98,0.00,,,0.06,Wunderground v.1.15,2013-05-20 02:59:00,
2013-05-19 23:00:00,67.2,66.6,30.06,SW,221,0.0,0.0,98,0.00,,,0.06,Wunderground v.1.15,2013-05-20 03:00:00,
2013-05-19 23:01:00,67.2,66.6,30.06,SW,221,0.0,0.0,98,0.00,,,0.06,Wunderground v.1.15,2013-05-20 03:01:00,
2013-05-19 23:03:00,67.1,66.5,30.06,SW,221,0.0,0.0,98,0.00,,,0.06,Wunderground v.1.15,2013-05-20 03:03:00,
2013-05-19 23:04:00,67.1,66.5,30.06,SW,221,0.0,0.0,98,0.00,,,0.06,Wunderground v.1.15,2013-05-20 03:04:00,
2013-05-19 23:05:00,67.1,66.5,30.06,SW,221,0.0,0.0,98,0.00,,,0.06,Wunderground v.1.15,2013-05-20 03:05:00,
2013-05-19 23:06:00,67.1,66.5,30.06,SW,221,0.0,0.0,98,0.00,,,0.06,Wunderground v.1.15,2013-05-20 03:06:00,
2013-05-19 23:08:00,67.1,66.5,30.06,SW,220,0.0,0.0,98,0.00,,,0.06,Wunderground v.1.15,2013-05-20 03:08:00,
2013-05-19 23:09:00,67.0,66.4,30.06,SW,220,0.0,0.0,98,0.00,,,0.06,Wunderground v.1.15,2013-05-20 03:09:00,
2013-05-19 23:10:00,67.0,66.4,30.06,SW,221,0.0,0.0,98,0.00,,,0.06,Wunderground v.1.15,2013-05-20 03:10:00,
2013-05-19 23:11:00,67.0,66.4,30.06,SW,215,0.0,0.0,98,0.00,,,0.06,Wunderground v.1.15,2013-05-20 03:11:00,
2013-05-19 23:14:00,66.9,66.3,30.06,SW,215,0.0,0.0,98,0.00,,,0.06,Wunderground v.1.15,2013-05-20 03:14:00,
2013-05-19 23:15:00,66.9,66.3,30.06,West,281,0.0,0.0,98,0.00,,,0.06,Wunderground v.1.15,2013-05-20 03:15:00,
2013-05-19 23:16:00,66.9,66.3,30.06,West,281,0.0,0.0,98,0.00,,,0.06,Wunderground v.1.15,2013-05-20 03:16:00,
2013-05-19 23:19:00,66.8,66.2,30.06,West,281,0.0,0.0,98,0.00,,,0.06,Wunderground v.1.15,2013-05-20 03:19:00,
2013-05-19 23:20:00,66.8,66.2,30.06,West,281,0.0,0.0,98,0.00,,,0.06,Wunderground v.1.15,2013-05-20 03:20:00,
2013-05-19 23:21:00,66.8,66.2,30.06,West,281,0.0,0.0,98,0.00,,,0.06,Wunderground v.1.15,2013-05-20 03:21:00,
2013-05-19 23:24:00,66.7,66.1,30.06,West,281,0.0,0.0,98,0.00,,,0.06,Wunderground v.1.15,2013-05-20 03:24:00,
2013-05-19 23:25:00,66.7,66.1,30.06,West,281,0.0,0.0,98,0.00,,,0.06,Wunderground v.1.15,2013-05-20 03:25:00,
2013-05-19 23:26:00,66.7,66.1,30.06,West,281,0.0,0.0,98,0.00,,,0.06,Wunderground v.1.15,2013-05-20 03:26:00,
2013-05-19 23:29:00,66.6,66.0,30.06,WSW,252,1.0,1.0,98,0.00,,,0.06,Wunderground v.1.15,2013-05-20 03:29:00,
2013-05-19 23:30:00,66.6,66.0,30.06,West,263,0.0,0.0,98,0.00,,,0.06,Wunderground v.1.15,2013-05-20 03:30:00,
2013-05-19 23:31:00,66.6,66.0,30.06,West,263,0.0,0.0,98,0.00,,,0.06,Wunderground v.1.15,2013-05-20 03:31:00,
2013-05-19 23:34:00,66.5,65.9,30.06,NW,316,0.0,0.0,98,0.00,,,0.06,Wunderground v.1.15,2013-05-20 03:34:00,
2013-05-19 23:35:00,66.5,65.9,30.06,NW,316,0.0,0.0,98,0.00,,,0.06,Wunderground v.1.15,2013-05-20 03:35:00,
2013-05-19 23:36:00,66.5,65.9,30.06,NW,316,0.0,0.0,98,0.00,,,0.06,Wunderground v.1.15,2013-05-20 03:36:00,
2013-05-19 23:37:00,66.4,65.8,30.06,NW,316,0.0,0.0,98,0.00,,,0.06,Wunderground v.1.15,2013-05-20 03:37:00,
2013-05-19 23:39:00,66.3,65.7,30.06,West,267,1.0,3.0,98,0.00,,,0.06,Wunderground v.1.15,2013-05-20 03:39:00,
2013-05-19 23:40:00,66.3,65.7,30.06,WNW,287,1.0,2.0,98,0.00,,,0.06,Wunderground v.1.15,2013-05-20 03:40:00,
2013-05-19 23:41:00,66.3,65.7,30.06,WNW,286,0.0,2.0,98,0.00,,,0.06,Wunderground v.1.15,2013-05-20 03:41:00,
2013-05-19 23:42:00,66.2,65.6,30.06,WNW,287,0.0,2.0,98,0.00,,,0.06,Wunderground v.1.15,2013-05-20 03:42:00,
2013-05-19 23:45:00,66.2,65.6,30.06,NW,315,0.0,2.0,98,0.00,,,0.06,Wunderground v.1.15,2013-05-20 03:45:00,
2013-05-19 23:46:00,66.2,65.6,30.06,NW,315,0.0,2.0,98,0.00,,,0.06,Wunderground v.1.15,2013-05-20 03:46:00,
2013-05-19 23:47:00,66.2,65.6,30.06,NW,315,0.0,2.0,98,0.00,,,0.06,Wunderground v.1.15,2013-05-20 03:47:00,
2013-05-19 23:50:00,66.0,65.4,30.06,West,274,0.0,0.0,98,0.00,,,0.06,Wunderground v.1.15,2013-05-20 03:50:00,
2013-05-19 23:51:00,66.0,65.4,30.06,West,274,0.0,0.0,98,0.00,,,0.06,Wunderground v.1.15,2013-05-20 03:51:00,
2013-05-19 23:52:00,66.0,65.4,30.06,West,274,0.0,0.0,98,0.00,,,0.06,Wunderground v.1.15,2013-05-20 03:52:00,
2013-05-19 23:55:00,65.9,65.3,30.06,West,274,0.0,0.0,98,0.00,,,0.06,Wunderground v.1.15,2013-05-20 03:55:00,
2013-05-19 23:56:00,65.9,65.3,30.06,West,274,0.0,0.0,98,0.00,,,0.06,Wunderground v.1.15,2013-05-20 03:56:00,
2013-05-19 23:57:00,65.9,65.3,30.06,West,274,0.0,0.0,98,0.00,,,0.06,Wunderground v.1.15,2013-05-20 03:57:00,